Wetterdaten: Dienstag, 09.02.2016
Datum Zeit Temp. Aussen Temp. o. S. +5cm Feuchte Auss BlattFeu 1 Luftdruck Regen Sonnenschein Regendauer Solar Windben Empfang
09.02.2016 00:00 8,1 C 8,3 C 6,7 C 76 % 0 lf 995,5 hPa 0,0 l/m 0 min 0 min 0 W/m 75,3 km/h (9 Bft) 95,74 %
09.02.2016 00:02 8,1 C 8,3 C 6,1 C 76 % 0 lf 995,4 hPa 0,0 l/m 0 min 0 min 0 W/m 58,6 km/h (7 Bft) 16,67 %
09.02.2016 00:06 8,0 C 8,3 C 6,1 C 76 % 0 lf 995,5 hPa 0,0 l/m 0 min 0 min 0 W/m 52,3 km/h (7 Bft) 64,52 %
09.02.2016 00:08 8,0 C 8,3 C 6,1 C 76 % 0 lf 995,5 hPa 0,0 l/m 0 min 0 min 0 W/m 64,9 km/h (8 Bft) 95,74 %
09.02.2016 00:10 8,0 C 8,3 C 6,1 C 76 % 0 lf 995,7 hPa 0,0 l/m 0 min 0 min 0 W/m 60,7 km/h (7 Bft) 93,62 %
09.02.2016 00:12 8,0 C 8,3 C 6,1 C 76 % 0 lf 995,5 hPa 0,0 l/m 0 min 0 min 0 W/m 58,6 km/h (7 Bft) 95,74 %
09.02.2016 00:14 8,0 C 8,3 C 6,1 C 76 % 0 lf 995,7 hPa 0,0 l/m 0 min 0 min 0 W/m 50,2 km/h (7 Bft) 93,62 %
09.02.2016 00:16 8,0 C 8,3 C 6,1 C 76 % 0 lf 995,6 hPa 0,0 l/m 0 min 0 min 0 W/m 48,1 km/h (6 Bft) 93,62 %
09.02.2016 00:18 8,0 C 8,3 C 6,7 C 76 % 0 lf 995,7 hPa 0,0 l/m 0 min 0 min 0 W/m 54,4 km/h (7 Bft) 86,96 %
09.02.2016 00:20 8,0 C 8,3 C 6,7 C 76 % 0 lf 995,8 hPa 0,0 l/m 0 min 0 min 0 W/m 48,1 km/h (6 Bft) 93,62 %
09.02.2016 00:22 8,0 C 8,3 C 6,7 C 76 % 0 lf 995,6 hPa 0,0 l/m 0 min 0 min 0 W/m 50,2 km/h (7 Bft) 95,74 %
09.02.2016 00:24 7,9 C 8,3 C 6,7 C 76 % 0 lf 995,8 hPa 0,0 l/m 0 min 0 min 0 W/m 52,3 km/h (7 Bft) 91,49 %
09.02.2016 00:26 7,9 C 8,3 C 6,1 C 76 % 0 lf 995,8 hPa 0,0 l/m 0 min 0 min 0 W/m 46,0 km/h (6 Bft) 89,36 %
09.02.2016 00:28 7,9 C 8,3 C 6,1 C 76 % 0 lf 995,7 hPa 0,0 l/m 0 min 0 min 0 W/m 62,8 km/h (8 Bft) 95,74 %
09.02.2016 00:30 7,9 C 8,3 C 6,7 C 76 % 0 lf 995,9 hPa 0,0 l/m 0 min 0 min 0 W/m 66,9 km/h (8 Bft) 91,30 %
09.02.2016 00:32 7,9 C 8,3 C 6,7 C 76 % 0 lf 995,8 hPa 0,0 l/m 0 min 0 min 0 W/m 52,3 km/h (7 Bft) 93,62 %
09.02.2016 00:34 7,9 C 8,3 C 6,1 C 76 % 0 lf 996,0 hPa 0,0 l/m 0 min 0 min 0 W/m 58,6 km/h (7 Bft) 95,74 %
09.02.2016 00:36 7,9 C 8,3 C 6,1 C 76 % 0 lf 996,0 hPa 0,0 l/m 0 min 0 min 0 W/m 62,8 km/h (8 Bft) 96,23 %
09.02.2016 00:38 7,9 C 8,3 C 6,1 C 76 % 0 lf 995,9 hPa 0,0 l/m 0 min 0 min 0 W/m 62,8 km/h (8 Bft) 93,62 %
09.02.2016 00:40 7,9 C 8,3 C 6,1 C 75 % 0 lf 996,0 hPa 0,0 l/m 0 min 0 min 0 W/m 58,6 km/h (7 Bft) 93,48 %
09.02.2016 00:42 7,9 C 8,3 C 6,1 C 76 % 0 lf 996,1 hPa 0,0 l/m 0 min 0 min 0 W/m 58,6 km/h (7 Bft) 95,83 %
09.02.2016 00:44 7,9 C 7,8 C 6,1 C 76 % 0 lf 996,1 hPa 0,0 l/m 0 min 0 min 0 W/m 50,2 km/h (7 Bft) 97,87 %
09.02.2016 00:46 7,9 C 7,8 C 6,1 C 76 % 0 lf 996,0 hPa 0,0 l/m 0 min 0 min 0 W/m 66,9 km/h (8 Bft) 97,87 %
09.02.2016 00:48 7,9 C 7,8 C 6,1 C 76 % 0 lf 996,0 hPa 0,0 l/m 0 min 0 min 0 W/m 60,7 km/h (7 Bft) 93,62 %
09.02.2016 00:50 7,9 C 7,8 C 6,1 C 76 % 0 lf 995,9 hPa 0,0 l/m 0 min 0 min 0 W/m 52,3 km/h (7 Bft) 95,74 %
09.02.2016 00:52 7,8 C 7,8 C 6,1 C 76 % 0 lf 995,9 hPa 0,0 l/m 0 min 0 min 0 W/m 52,3 km/h (7 Bft) 97,83 %
09.02.2016 00:54 7,8 C 7,8 C 6,1 C 76 % 0 lf 995,9 hPa 0,0 l/m 0 min 0 min 0 W/m 58,6 km/h (7 Bft) 91,49 %
09.02.2016 00:56 7,8 C 7,8 C 5,6 C 76 % 0 lf 995,8 hPa 0,0 l/m 0 min 0 min 0 W/m 52,3 km/h (7 Bft) 95,74 %
09.02.2016 00:58 7,7 C 7,8 C 6,1 C 75 % 0 lf 996,0 hPa 0,0 l/m 0 min 0 min 0 W/m 56,5 km/h (7 Bft) 95,74 %
09.02.2016 01:00 7,7 C 7,8 C 5,6 C 76 % 0 lf 996,0 hPa 0,0 l/m 0 min 0 min 0 W/m 48,1 km/h (6 Bft) 93,62 %
09.02.2016 01:02 7,7 C 7,8 C 5,6 C 76 % 0 lf 996,1 hPa 0,0 l/m 0 min 0 min 0 W/m 48,1 km/h (6 Bft) 95,74 %
09.02.2016 01:04 7,7 C 7,8 C 5,6 C 76 % 0 lf 996,0 hPa 0,0 l/m 0 min 0 min 0 W/m 60,7 km/h (7 Bft) 95,74 %
09.02.2016 01:06 7,6 C 7,8 C 5,6 C 76 % 0 lf 996,1 hPa 0,0 l/m 0 min 0 min 0 W/m 56,5 km/h (7 Bft) 94,74 %
09.02.2016 01:08 7,6 C 7,8 C 5,6 C 76 % 0 lf 996,2 hPa 0,0 l/m 0 min 0 min 0 W/m 62,8 km/h (8 Bft) 95,74 %
09.02.2016 01:10 7,6 C 7,8 C 5,6 C 76 % 0 lf 996,2 hPa 0,0 l/m 0 min 0 min 0 W/m 58,6 km/h (7 Bft) 93,62 %
09.02.2016 01:12 7,6 C 7,8 C 5,6 C 76 % 0 lf 996,2 hPa 0,0 l/m 0 min 0 min 0 W/m 50,2 km/h (7 Bft) 95,74 %
09.02.2016 01:14 7,5 C 7,2 C 5,6 C 76 % 0 lf 996,3 hPa 0,0 l/m 0 min 0 min 0 W/m 54,4 km/h (7 Bft) 91,49 %
09.02.2016 01:16 7,5 C 7,2 C 5,6 C 76 % 0 lf 996,1 hPa 0,0 l/m 0 min 0 min 0 W/m 58,6 km/h (7 Bft) 95,65 %
09.02.2016 01:18 7,5 C 7,2 C 5,6 C 76 % 0 lf 996,2 hPa 0,0 l/m 0 min 0 min 0 W/m 58,6 km/h (7 Bft) 95,74 %
09.02.2016 01:20 7,4 C 7,2 C 5,6 C 76 % 0 lf 996,2 hPa 0,0 l/m 0 min 0 min 0 W/m 48,1 km/h (6 Bft) 97,87 %
09.02.2016 01:22 7,4 C 7,2 C 5,6 C 76 % 0 lf 996,2 hPa 0,0 l/m 0 min 0 min 0 W/m 52,3 km/h (7 Bft) 91,67 %
09.02.2016 01:24 7,4 C 7,2 C 5,6 C 76 % 0 lf 996,2 hPa 0,0 l/m 0 min 0 min 0 W/m 52,3 km/h (7 Bft) 97,87 %
09.02.2016 01:26 7,4 C 7,2 C 5,6 C 76 % 0 lf 996,2 hPa 0,0 l/m 0 min 0 min 0 W/m 46,0 km/h (6 Bft) 95,74 %
09.02.2016 01:28 7,4 C 7,2 C 5,6 C 76 % 0 lf 996,6 hPa 0,0 l/m 0 min 0 min 0 W/m 54,4 km/h (7 Bft) 97,83 %
09.02.2016 01:30 7,4 C 7,2 C 5,6 C 76 % 0 lf 996,3 hPa 0,0 l/m 0 min 0 min 0 W/m 48,1 km/h (6 Bft) 93,62 %
09.02.2016 01:32 7,3 C 7,2 C 5,6 C 76 % 0 lf 996,3 hPa 0,0 l/m 0 min 0 min 0 W/m 50,2 km/h (7 Bft) 93,75 %
09.02.2016 01:34 7,3 C 7,2 C 5,6 C 76 % 0 lf 996,5 hPa 0,0 l/m 0 min 0 min 0 W/m 54,4 km/h (7 Bft) 97,87 %
09.02.2016 01:36 7,3 C 7,2 C 5,6 C 76 % 0 lf 996,3 hPa 0,0 l/m 0 min 0 min 0 W/m 52,3 km/h (7 Bft) 95,92 %
09.02.2016 01:38 7,3 C 7,2 C 5,6 C 76 % 0 lf 996,5 hPa 0,0 l/m 0 min 0 min 0 W/m 71,1 km/h (8 Bft) 97,83 %
09.02.2016 01:40 7,3 C 7,2 C 5,6 C 76 % 0 lf 996,5 hPa 0,0 l/m 0 min 0 min 0 W/m 56,5 km/h (7 Bft) 93,62 %
09.02.2016 01:42 7,3 C 7,2 C 5,6 C 76 % 0 lf 996,3 hPa 0,0 l/m 0 min 0 min 0 W/m 54,4 km/h (7 Bft) 95,74 %
09.02.2016 01:44 7,3 C 7,2 C 5,6 C 76 % 0 lf 996,4 hPa 0,0 l/m 0 min 0 min 0 W/m 50,2 km/h (7 Bft) 93,62 %
09.02.2016 01:46 7,3 C 7,2 C 5,6 C 77 % 0 lf 996,5 hPa 0,0 l/m 0 min 0 min 0 W/m 50,2 km/h (7 Bft) 97,87 %
09.02.2016 01:48 7,2 C 7,2 C 5,6 C 77 % 0 lf 996,5 hPa 0,0 l/m 0 min 0 min 0 W/m 46,0 km/h (6 Bft) 95,74 %
09.02.2016 01:50 7,2 C 7,2 C 5,6 C 77 % 0 lf 996,6 hPa 0,0 l/m 0 min 0 min 0 W/m 48,1 km/h (6 Bft) 100,00 %
09.02.2016 01:52 7,2 C 7,2 C 5,6 C 77 % 0 lf 996,6 hPa 0,0 l/m 0 min 0 min 0 W/m 66,9 km/h (8 Bft) 95,65 %
09.02.2016 01:54 7,2 C 7,2 C 5,6 C 77 % 0 lf 996,6 hPa 0,0 l/m 0 min 0 min 0 W/m 52,3 km/h (7 Bft) 100,00 %
09.02.2016 01:56 7,2 C 7,2 C 5,6 C 77 % 0 lf 996,6 hPa 0,0 l/m 0 min 0 min 0 W/m 60,7 km/h (7 Bft) 100,00 %
09.02.2016 01:58 7,2 C 7,2 C 5,6 C 77 % 0 lf 996,7 hPa 0,0 l/m 0 min 0 min 0 W/m 64,9 km/h (8 Bft) 95,74 %
09.02.2016 02:00 7,2 C 7,2 C 5,6 C 77 % 0 lf 996,6 hPa 0,0 l/m 0 min 0 min 0 W/m 43,9 km/h (6 Bft) 91,49 %
09.02.2016 02:02 7,2 C 7,2 C 5,6 C 77 % 0 lf 996,7 hPa 0,0 l/m 0 min 0 min 0 W/m 50,2 km/h (7 Bft) 97,83 %
09.02.2016 02:04 7,2 C 7,2 C 5,6 C 77 % 0 lf 996,7 hPa 0,0 l/m 0 min 0 min 0 W/m 39,7 km/h (6 Bft) 97,87 %
09.02.2016 02:06 7,2 C 7,2 C 5,0 C 77 % 0 lf 996,8 hPa 0,0 l/m 0 min 0 min 0 W/m 48,1 km/h (6 Bft) 97,87 %
09.02.2016 02:08 7,1 C 7,2 C 5,6 C 77 % 0 lf 997,0 hPa 0,0 l/m 0 min 0 min 0 W/m 56,5 km/h (7 Bft) 97,87 %
09.02.2016 02:10 7,2 C 7,2 C 5,6 C 77 % 0 lf 996,7 hPa 0,0 l/m 0 min 0 min 0 W/m 54,4 km/h (7 Bft) 95,74 %
09.02.2016 02:12 7,2 C 7,2 C 5,6 C 77 % 0 lf 996,9 hPa 0,0 l/m 0 min 0 min 0 W/m 46,0 km/h (6 Bft) 95,74 %
09.02.2016 02:14 7,2 C 7,2 C 5,6 C 77 % 0 lf 996,9 hPa 0,0 l/m 0 min 0 min 0 W/m 52,3 km/h (7 Bft) 95,65 %
09.02.2016 02:16 7,2 C 7,2 C 5,6 C 77 % 0 lf 996,9 hPa 0,0 l/m 0 min 0 min 0 W/m 46,0 km/h (6 Bft) 93,62 %
09.02.2016 02:18 7,2 C 7,2 C 5,6 C 77 % 0 lf 996,8 hPa 0,0 l/m 0 min 0 min 0 W/m 54,4 km/h (7 Bft) 97,87 %
09.02.2016 02:20 7,2 C 7,2 C 5,6 C 77 % 0 lf 997,0 hPa 0,0 l/m 0 min 0 min 0 W/m 46,0 km/h (6 Bft) 95,74 %
09.02.2016 02:22 7,2 C 7,2 C 5,6 C 77 % 0 lf 996,9 hPa 0,0 l/m 0 min 0 min 0 W/m 52,3 km/h (7 Bft) 95,74 %
09.02.2016 02:24 7,2 C 7,2 C 5,6 C 77 % 0 lf 996,8 hPa 0,0 l/m 0 min 0 min 0 W/m 50,2 km/h (7 Bft) 95,74 %
09.02.2016 02:26 7,2 C 7,2 C 5,6 C 77 % 1 lf 997,0 hPa 0,0 l/m 0 min 0 min 0 W/m 48,1 km/h (6 Bft) 95,65 %
09.02.2016 02:28 7,2 C 7,2 C 5,6 C 78 % 6 lf 996,8 hPa 0,0 l/m 0 min 0 min 0 W/m 43,9 km/h (6 Bft) 95,74 %
09.02.2016 02:30 7,2 C 7,2 C 5,6 C 78 % 15 lf 997,1 hPa 0,0 l/m 0 min 2 min 0 W/m 50,2 km/h (7 Bft) 97,87 %
09.02.2016 02:32 7,2 C 7,2 C 5,6 C 78 % 15 lf 997,0 hPa 0,0 l/m 0 min 2 min 0 W/m 46,0 km/h (6 Bft) 95,74 %
09.02.2016 02:34 7,2 C 7,2 C 5,6 C 78 % 15 lf 997,1 hPa 0,0 l/m 0 min 2 min 0 W/m 50,2 km/h (7 Bft) 95,74 %
09.02.2016 02:36 7,2 C 7,2 C 5,6 C 78 % 11 lf 996,8 hPa 0,0 l/m 0 min 2 min 0 W/m 41,8 km/h (6 Bft) 95,35 %
09.02.2016 02:38 7,2 C 7,2 C 5,6 C 78 % 3 lf 996,9 hPa 0,0 l/m 0 min 2 min 0 W/m 41,8 km/h (6 Bft) 100,00 %
09.02.2016 02:40 7,2 C 7,2 C 5,6 C 79 % 0 lf 997,0 hPa 0,0 l/m 0 min 2 min 0 W/m 48,1 km/h (6 Bft) 100,00 %
09.02.2016 02:42 7,2 C 7,2 C 5,6 C 78 % 2 lf 996,9 hPa 0,0 l/m 0 min 2 min 0 W/m 50,2 km/h (7 Bft) 100,00 %
09.02.2016 02:44 7,2 C 7,2 C 5,6 C 78 % 1 lf 997,0 hPa 0,0 l/m 0 min 2 min 0 W/m 41,8 km/h (6 Bft) 100,00 %
09.02.2016 02:46 7,2 C 7,2 C 5,6 C 78 % 15 lf 996,9 hPa 0,0 l/m 0 min 2 min 0 W/m 56,5 km/h (7 Bft) 100,00 %
09.02.2016 02:48 7,2 C 7,2 C 5,6 C 78 % 9 lf 996,7 hPa 0,0 l/m 0 min 2 min 0 W/m 46,0 km/h (6 Bft) 100,00 %
09.02.2016 02:50 7,2 C 7,2 C 5,6 C 78 % 0 lf 996,8 hPa 0,0 l/m 0 min 2 min 0 W/m 56,5 km/h (7 Bft) 100,00 %
09.02.2016 02:52 7,2 C 7,2 C 5,6 C 78 % 0 lf 996,6 hPa 0,0 l/m 0 min 2 min 0 W/m 46,0 km/h (6 Bft) 97,87 %
09.02.2016 02:54 7,2 C 7,2 C 5,6 C 78 % 0 lf 996,7 hPa 0,0 l/m 0 min 2 min 0 W/m 58,6 km/h (7 Bft) 95,74 %
09.02.2016 02:56 7,2 C 7,2 C 5,6 C 78 % 0 lf 996,7 hPa 0,0 l/m 0 min 2 min 0 W/m 39,7 km/h (6 Bft) 100,00 %
09.02.2016 02:58 7,2 C 7,2 C 5,6 C 77 % 0 lf 996,9 hPa 0,0 l/m 0 min 2 min 0 W/m 50,2 km/h (7 Bft) 100,00 %
09.02.2016 03:00 7,2 C 7,2 C 5,6 C 77 % 0 lf 996,9 hPa 0,0 l/m 0 min 2 min 0 W/m 39,7 km/h (6 Bft) 100,00 %
09.02.2016 03:02 7,2 C 7,2 C 5,6 C 77 % 0 lf 997,0 hPa 0,0 l/m 0 min 2 min 0 W/m 56,5 km/h (7 Bft) 100,00 %
09.02.2016 03:04 7,2 C 7,2 C 5,6 C 77 % 0 lf 996,9 hPa 0,0 l/m 0 min 2 min 0 W/m 48,1 km/h (6 Bft) 100,00 %
09.02.2016 03:06 7,2 C 7,2 C 5,6 C 77 % 0 lf 997,1 hPa 0,0 l/m 0 min 2 min 0 W/m 52,3 km/h (7 Bft) 96,00 %
09.02.2016 03:08 7,3 C 7,2 C 5,6 C 77 % 0 lf 997,1 hPa 0,0 l/m 0 min 2 min 0 W/m 52,3 km/h (7 Bft) 97,87 %
09.02.2016 03:10 7,3 C 7,2 C 5,6 C 77 % 0 lf 997,0 hPa 0,0 l/m 0 min 2 min 0 W/m 43,9 km/h (6 Bft) 100,00 %
09.02.2016 03:12 7,3 C 7,8 C 5,6 C 77 % 0 lf 997,1 hPa 0,0 l/m 0 min 2 min 0 W/m 54,4 km/h (7 Bft) 100,00 %
09.02.2016 03:14 7,3 C 7,8 C 6,1 C 77 % 0 lf 997,1 hPa 0,0 l/m 0 min 0 min 0 W/m 50,2 km/h (7 Bft) 95,74 %
09.02.2016 03:16 7,3 C 7,8 C 5,6 C 77 % 0 lf 997,2 hPa 0,0 l/m 0 min 0 min 0 W/m 58,6 km/h (7 Bft) 97,87 %
09.02.2016 03:18 7,3 C 7,8 C 6,1 C 77 % 0 lf 997,1 hPa 0,0 l/m 0 min 0 min 0 W/m 52,3 km/h (7 Bft) 97,87 %
09.02.2016 03:20 7,4 C 7,8 C 6,1 C 77 % 0 lf 997,2 hPa 0,2 l/m 0 min 0 min 0 W/m 60,7 km/h (7 Bft) 95,74 %
09.02.2016 03:22 7,4 C 7,8 C 6,1 C 76 % 0 lf 997,2 hPa 0,0 l/m 0 min 0 min 0 W/m 43,9 km/h (6 Bft) 100,00 %
09.02.2016 03:24 7,4 C 7,8 C 5,6 C 77 % 0 lf 997,3 hPa 0,0 l/m 0 min 0 min 0 W/m 41,8 km/h (6 Bft) 97,83 %
09.02.2016 03:26 7,4 C 7,8 C 5,6 C 76 % 0 lf 997,1 hPa 0,0 l/m 0 min 0 min 0 W/m 48,1 km/h (6 Bft) 93,62 %
09.02.2016 03:28 7,4 C 7,8 C 6,1 C 76 % 0 lf 997,2 hPa 0,0 l/m 0 min 0 min 0 W/m 43,9 km/h (6 Bft) 93,62 %
09.02.2016 03:30 7,4 C 7,8 C 6,1 C 76 % 0 lf 997,1 hPa 0,0 l/m 0 min 0 min 0 W/m 58,6 km/h (7 Bft) 95,74 %
09.02.2016 03:32 7,4 C 7,8 C 6,1 C 76 % 0 lf 997,2 hPa 0,0 l/m 0 min 0 min 0 W/m 39,7 km/h (6 Bft) 89,36 %
09.02.2016 03:34 7,4 C 7,8 C 6,1 C 76 % 0 lf 997,1 hPa 0,0 l/m 0 min 0 min 0 W/m 46,0 km/h (6 Bft) 93,62 %
09.02.2016 03:36 7,4 C 7,8 C 6,1 C 77 % 0 lf 997,1 hPa 0,0 l/m 0 min 0 min 0 W/m 56,5 km/h (7 Bft) 89,13 %
09.02.2016 03:38 7,4 C 7,8 C 5,6 C 76 % 0 lf 997,1 hPa 0,0 l/m 0 min 0 min 0 W/m 52,3 km/h (7 Bft) 95,74 %
09.02.2016 03:40 7,4 C 7,8 C 6,1 C 76 % 0 lf 997,1 hPa 0,0 l/m 0 min 0 min 0 W/m 52,3 km/h (7 Bft) 93,62 %
09.02.2016 03:42 7,4 C 7,8 C 5,6 C 76 % 0 lf 997,1 hPa 0,0 l/m 0 min 0 min 0 W/m 46,0 km/h (6 Bft) 91,49 %
09.02.2016 03:44 7,4 C 7,2 C 5,6 C 76 % 0 lf 997,1 hPa 0,0 l/m 0 min 0 min 0 W/m 48,1 km/h (6 Bft) 89,36 %
09.02.2016 03:46 7,4 C 7,2 C 5,6 C 76 % 0 lf 997,1 hPa 0,0 l/m 0 min 0 min 0 W/m 41,8 km/h (6 Bft) 94,23 %
09.02.2016 03:48 7,4 C 7,2 C 5,6 C 76 % 0 lf 997,1 hPa 0,0 l/m 0 min 0 min 0 W/m 60,7 km/h (7 Bft) 89,36 %
09.02.2016 03:50 7,4 C 7,8 C 5,6 C 76 % 0 lf 997,1 hPa 0,0 l/m 0 min 0 min 0 W/m 52,3 km/h (7 Bft) 93,62 %
09.02.2016 03:52 7,4 C 7,2 C 5,6 C 76 % 0 lf 997,1 hPa 0,0 l/m 0 min 0 min 0 W/m 39,7 km/h (6 Bft) 91,49 %
09.02.2016 03:54 7,4 C 7,2 C 5,6 C 76 % 0 lf 997,0 hPa 0,0 l/m 0 min 0 min 0 W/m 48,1 km/h (6 Bft) 91,49 %
09.02.2016 03:56 7,4 C 7,2 C 5,6 C 76 % 0 lf 997,0 hPa 0,0 l/m 0 min 0 min 0 W/m 37,7 km/h (5 Bft) 91,49 %
09.02.2016 03:58 7,3 C 7,2 C 5,6 C 76 % 0 lf 997,0 hPa 0,0 l/m 0 min 0 min 0 W/m 41,8 km/h (6 Bft) 92,11 %
09.02.2016 04:00 7,3 C 7,2 C 5,6 C 76 % 0 lf 997,1 hPa 0,0 l/m 0 min 0 min 0 W/m 43,9 km/h (6 Bft) 86,96 %
09.02.2016 04:02 7,3 C 7,2 C 5,6 C 77 % 0 lf 997,0 hPa 0,0 l/m 0 min 0 min 0 W/m 37,7 km/h (5 Bft) 100,00 %
09.02.2016 04:04 7,3 C 7,2 C 5,0 C 77 % 0 lf 997,1 hPa 0,0 l/m 0 min 0 min 0 W/m 46,0 km/h (6 Bft) 97,87 %
09.02.2016 04:06 7,2 C 7,2 C 5,0 C 77 % 0 lf 996,9 hPa 0,0 l/m 0 min 0 min 0 W/m 37,7 km/h (5 Bft) 91,49 %
09.02.2016 04:08 7,2 C 7,2 C 5,0 C 77 % 0 lf 996,9 hPa 0,0 l/m 0 min 0 min 0 W/m 39,7 km/h (6 Bft) 91,49 %
09.02.2016 04:10 7,2 C 7,2 C 5,0 C 77 % 0 lf 997,0 hPa 0,0 l/m 0 min 0 min 0 W/m 35,6 km/h (5 Bft) 95,65 %
09.02.2016 04:12 7,2 C 7,2 C 5,0 C 77 % 0 lf 996,9 hPa 0,0 l/m 0 min 0 min 0 W/m 43,9 km/h (6 Bft) 89,36 %
09.02.2016 04:14 7,1 C 7,2 C 5,6 C 77 % 0 lf 996,9 hPa 0,0 l/m 0 min 0 min 0 W/m 48,1 km/h (6 Bft) 91,49 %
09.02.2016 04:16 7,1 C 7,2 C 5,0 C 77 % 0 lf 996,8 hPa 0,0 l/m 0 min 0 min 0 W/m 37,7 km/h (5 Bft) 90,57 %
09.02.2016 04:18 7,1 C 7,2 C 5,0 C 78 % 0 lf 997,0 hPa 0,0 l/m 0 min 0 min 0 W/m 27,2 km/h (4 Bft) 93,62 %
09.02.2016 04:20 7,1 C 7,2 C 5,0 C 78 % 0 lf 997,0 hPa 0,0 l/m 0 min 0 min 0 W/m 37,7 km/h (5 Bft) 91,43 %
09.02.2016 04:22 7,1 C 7,2 C 5,0 C 78 % 0 lf 997,1 hPa 0,0 l/m 0 min 0 min 0 W/m 39,7 km/h (6 Bft) 92,31 %
09.02.2016 04:24 7,1 C 7,2 C 5,6 C 78 % 0 lf 996,9 hPa 0,0 l/m 0 min 0 min 0 W/m 29,3 km/h (5 Bft) 93,62 %
09.02.2016 04:26 7,1 C 7,2 C 5,6 C 78 % 0 lf 997,0 hPa 0,0 l/m 0 min 0 min 0 W/m 46,0 km/h (6 Bft) 93,62 %
09.02.2016 04:28 7,1 C 7,2 C 5,6 C 78 % 0 lf 997,0 hPa 0,0 l/m 0 min 0 min 0 W/m 35,6 km/h (5 Bft) 93,62 %
09.02.2016 04:30 7,1 C 7,2 C 5,6 C 78 % 0 lf 997,0 hPa 0,0 l/m 0 min 0 min 0 W/m 37,7 km/h (5 Bft) 93,62 %
09.02.2016 04:32 7,1 C 7,2 C 5,6 C 78 % 0 lf 996,7 hPa 0,0 l/m 0 min 0 min 0 W/m 37,7 km/h (5 Bft) 92,31 %
09.02.2016 04:34 7,1 C 7,2 C 5,6 C 78 % 0 lf 996,9 hPa 0,0 l/m 0 min 0 min 0 W/m 41,8 km/h (6 Bft) 97,87 %
09.02.2016 04:36 7,1 C 7,2 C 5,6 C 78 % 0 lf 996,9 hPa 0,0 l/m 0 min 0 min 0 W/m 43,9 km/h (6 Bft) 94,74 %
09.02.2016 04:38 7,1 C 7,2 C 5,6 C 78 % 0 lf 997,0 hPa 0,0 l/m 0 min 0 min 0 W/m 39,7 km/h (6 Bft) 100,00 %
09.02.2016 04:40 7,1 C 7,2 C 5,6 C 78 % 0 lf 997,0 hPa 0,0 l/m 0 min 0 min 0 W/m 37,7 km/h (5 Bft) 95,74 %
09.02.2016 04:42 7,1 C 7,2 C 5,6 C 78 % 0 lf 997,0 hPa 0,0 l/m 0 min 0 min 0 W/m 35,6 km/h (5 Bft) 97,92 %
09.02.2016 04:44 7,2 C 7,2 C 5,6 C 78 % 0 lf 996,9 hPa 0,0 l/m 0 min 0 min 0 W/m 50,2 km/h (7 Bft) 97,87 %
09.02.2016 04:46 7,2 C 7,2 C 5,6 C 78 % 0 lf 996,9 hPa 0,0 l/m 0 min 0 min 0 W/m 31,4 km/h (5 Bft) 100,00 %
09.02.2016 04:48 7,2 C 7,2 C 5,6 C 78 % 0 lf 996,9 hPa 0,0 l/m 0 min 0 min 0 W/m 35,6 km/h (5 Bft) 97,87 %
09.02.2016 04:50 7,2 C 7,2 C 5,6 C 78 % 0 lf 996,9 hPa 0,0 l/m 0 min 0 min 0 W/m 29,3 km/h (5 Bft) 100,00 %
09.02.2016 04:52 7,2 C 7,2 C 5,6 C 78 % 0 lf 996,9 hPa 0,0 l/m 0 min 0 min 0 W/m 35,6 km/h (5 Bft) 100,00 %
09.02.2016 04:54 7,2 C 7,8 C 5,6 C 78 % 0 lf 996,7 hPa 0,0 l/m 0 min 0 min 0 W/m 35,6 km/h (5 Bft) 97,87 %
09.02.2016 04:56 7,3 C 7,8 C 6,1 C 78 % 2 lf 996,9 hPa 0,0 l/m 0 min 2 min 0 W/m 41,8 km/h (6 Bft) 100,00 %
09.02.2016 04:58 7,3 C 7,8 C 6,1 C 78 % 1 lf 996,9 hPa 0,0 l/m 0 min 2 min 0 W/m 56,5 km/h (7 Bft) 97,83 %
09.02.2016 05:00 7,3 C 7,2 C 6,1 C 79 % 4 lf 996,9 hPa 0,0 l/m 0 min 2 min 0 W/m 64,9 km/h (8 Bft) 100,00 %
09.02.2016 05:02 7,4 C 7,2 C 5,6 C 79 % 10 lf 996,9 hPa 0,0 l/m 0 min 2 min 0 W/m 43,9 km/h (6 Bft) 93,75 %
09.02.2016 05:04 7,4 C 7,2 C 5,6 C 79 % 15 lf 996,9 hPa 0,0 l/m 0 min 2 min 0 W/m 58,6 km/h (7 Bft) 100,00 %
09.02.2016 05:06 7,4 C 7,2 C 5,6 C 79 % 11 lf 997,0 hPa 0,0 l/m 0 min 2 min 0 W/m 43,9 km/h (6 Bft) 100,00 %
09.02.2016 05:08 7,4 C 7,2 C 5,6 C 79 % 15 lf 997,1 hPa 0,0 l/m 0 min 2 min 0 W/m 50,2 km/h (7 Bft) 100,00 %
09.02.2016 05:10 7,3 C 6,7 C 5,0 C 80 % 15 lf 997,1 hPa 0,0 l/m 0 min 2 min 0 W/m 56,5 km/h (7 Bft) 100,00 %
09.02.2016 05:12 7,2 C 5,6 C 4,4 C 81 % 15 lf 997,4 hPa 0,2 l/m 0 min 2 min 0 W/m 77,4 km/h (9 Bft) 100,00 %
09.02.2016 05:14 7,1 C 5,0 C 3,9 C 81 % 15 lf 997,3 hPa 0,0 l/m 0 min 2 min 0 W/m 60,7 km/h (7 Bft) 97,87 %
09.02.2016 05:16 6,9 C 5,0 C 3,9 C 82 % 15 lf 997,2 hPa 0,0 l/m 0 min 2 min 0 W/m 41,8 km/h (6 Bft) 97,87 %
09.02.2016 05:18 6,8 C 5,0 C 3,9 C 83 % 15 lf 997,2 hPa 0,2 l/m 0 min 2 min 0 W/m 43,9 km/h (6 Bft) 100,00 %
09.02.2016 05:20 6,7 C 5,0 C 3,9 C 84 % 15 lf 997,1 hPa 0,2 l/m 0 min 2 min 0 W/m 39,7 km/h (6 Bft) 97,83 %
09.02.2016 05:22 6,6 C 5,0 C 3,9 C 85 % 15 lf 997,1 hPa 0,0 l/m 0 min 2 min 0 W/m 39,7 km/h (6 Bft) 97,87 %
09.02.2016 05:24 6,4 C 5,0 C 3,9 C 86 % 15 lf 997,1 hPa 0,0 l/m 0 min 2 min 0 W/m 39,7 km/h (6 Bft) 97,87 %
09.02.2016 05:26 6,4 C 5,0 C 3,9 C 86 % 15 lf 997,0 hPa 0,2 l/m 0 min 2 min 0 W/m 33,5 km/h (5 Bft) 100,00 %
09.02.2016 05:28 6,3 C 5,0 C 3,9 C 87 % 15 lf 996,9 hPa 0,0 l/m 0 min 2 min 0 W/m 27,2 km/h (4 Bft) 97,87 %
09.02.2016 05:30 6,2 C 5,0 C 3,9 C 87 % 15 lf 996,7 hPa 0,0 l/m 0 min 2 min 0 W/m 25,1 km/h (4 Bft) 97,87 %
09.02.2016 05:32 6,2 C 5,0 C 3,9 C 88 % 15 lf 996,6 hPa 0,0 l/m 0 min 0 min 0 W/m 25,1 km/h (4 Bft) 97,83 %
09.02.2016 05:34 6,1 C 5,0 C 3,9 C 88 % 15 lf 996,7 hPa 0,0 l/m 0 min 0 min 0 W/m 29,3 km/h (5 Bft) 100,00 %
09.02.2016 05:36 6,1 C 5,0 C 3,9 C 88 % 15 lf 996,6 hPa 0,0 l/m 0 min 0 min 0 W/m 25,1 km/h (4 Bft) 100,00 %
09.02.2016 05:38 6,1 C 5,0 C 3,9 C 89 % 15 lf 996,5 hPa 0,0 l/m 0 min 2 min 0 W/m 29,3 km/h (5 Bft) 100,00 %
09.02.2016 05:40 6,0 C 5,0 C 3,9 C 89 % 15 lf 996,6 hPa 0,0 l/m 0 min 2 min 0 W/m 18,8 km/h (3 Bft) 97,87 %
09.02.2016 05:42 5,9 C 5,0 C 3,9 C 89 % 15 lf 996,6 hPa 0,0 l/m 0 min 2 min 0 W/m 18,8 km/h (3 Bft) 93,48 %
09.02.2016 05:44 5,9 C 5,0 C 3,9 C 89 % 15 lf 996,6 hPa 0,0 l/m 0 min 2 min 0 W/m 18,8 km/h (3 Bft) 97,87 %
09.02.2016 05:46 5,9 C 5,0 C 3,9 C 89 % 15 lf 996,6 hPa 0,0 l/m 0 min 2 min 0 W/m 20,9 km/h (4 Bft) 100,00 %
09.02.2016 05:48 5,9 C 5,0 C 3,9 C 90 % 15 lf 996,4 hPa 0,0 l/m 0 min 2 min 0 W/m 20,9 km/h (4 Bft) 96,61 %
09.02.2016 05:50 5,9 C 5,0 C 3,9 C 90 % 15 lf 996,4 hPa 0,0 l/m 0 min 2 min 0 W/m 16,7 km/h (3 Bft) 97,87 %
09.02.2016 05:52 5,9 C 5,0 C 3,9 C 90 % 15 lf 996,3 hPa 0,2 l/m 0 min 2 min 0 W/m 31,4 km/h (5 Bft) 97,14 %
09.02.2016 05:54 5,8 C 5,0 C 3,9 C 90 % 15 lf 996,1 hPa 0,0 l/m 0 min 0 min 0 W/m 20,9 km/h (4 Bft) 95,74 %
09.02.2016 05:56 5,8 C 5,0 C 3,9 C 90 % 15 lf 996,1 hPa 0,0 l/m 0 min 0 min 0 W/m 18,8 km/h (3 Bft) 95,74 %
09.02.2016 05:58 5,8 C 5,0 C 3,9 C 90 % 15 lf 996,1 hPa 0,0 l/m 0 min 0 min 0 W/m 23,0 km/h (4 Bft) 97,83 %
09.02.2016 06:00 5,8 C 5,0 C 3,9 C 91 % 15 lf 996,0 hPa 0,0 l/m 0 min 0 min 0 W/m 29,3 km/h (5 Bft) 97,87 %
09.02.2016 06:02 5,8 C 5,0 C 3,9 C 91 % 15 lf 996,0 hPa 0,0 l/m 0 min 0 min 0 W/m 14,6 km/h (3 Bft) 95,83 %
09.02.2016 06:04 5,8 C 5,0 C 3,9 C 91 % 15 lf 995,9 hPa 0,0 l/m 0 min 0 min 0 W/m 20,9 km/h (4 Bft) 97,87 %
09.02.2016 06:06 5,7 C 5,0 C 3,9 C 91 % 15 lf 995,9 hPa 0,0 l/m 0 min 0 min 0 W/m 16,7 km/h (3 Bft) 98,00 %
09.02.2016 06:08 5,7 C 5,0 C 3,9 C 91 % 15 lf 995,9 hPa 0,0 l/m 0 min 0 min 0 W/m 18,8 km/h (3 Bft) 97,83 %
09.02.2016 06:10 5,7 C 5,0 C 3,9 C 91 % 15 lf 996,0 hPa 0,0 l/m 0 min 0 min 0 W/m 29,3 km/h (5 Bft) 95,74 %
09.02.2016 06:12 5,7 C 5,0 C 3,9 C 91 % 15 lf 996,0 hPa 0,0 l/m 0 min 2 min 0 W/m 35,6 km/h (5 Bft) 93,62 %
09.02.2016 06:14 5,7 C 5,0 C 3,9 C 91 % 15 lf 996,0 hPa 0,0 l/m 0 min 2 min 0 W/m 23,0 km/h (4 Bft) 97,87 %
09.02.2016 06:16 5,7 C 5,0 C 3,9 C 91 % 15 lf 996,0 hPa 0,0 l/m 0 min 2 min 0 W/m 29,3 km/h (5 Bft) 100,00 %
09.02.2016 06:18 5,7 C 5,6 C 3,9 C 91 % 15 lf 996,0 hPa 0,0 l/m 0 min 0 min 0 W/m 35,6 km/h (5 Bft) 97,87 %
09.02.2016 06:20 5,8 C 5,6 C 3,9 C 91 % 15 lf 996,0 hPa 0,0 l/m 0 min 2 min 0 W/m 31,4 km/h (5 Bft) 100,00 %
09.02.2016 06:22 5,8 C 5,6 C 3,9 C 91 % 15 lf 996,0 hPa 0,0 l/m 0 min 2 min 0 W/m 25,1 km/h (4 Bft) 97,87 %
09.02.2016 06:24 5,8 C 5,6 C 3,9 C 91 % 15 lf 995,9 hPa 0,0 l/m 0 min 2 min 0 W/m 31,4 km/h (5 Bft) 95,74 %
09.02.2016 06:26 5,8 C 5,0 C 3,9 C 91 % 15 lf 995,9 hPa 0,0 l/m 0 min 2 min 0 W/m 23,0 km/h (4 Bft) 93,62 %
09.02.2016 06:28 5,8 C 5,0 C 3,9 C 91 % 15 lf 995,8 hPa 0,0 l/m 0 min 0 min 0 W/m 23,0 km/h (4 Bft) 93,62 %
09.02.2016 06:30 5,9 C 5,0 C 3,9 C 91 % 15 lf 995,8 hPa 0,0 l/m 0 min 2 min 0 W/m 29,3 km/h (5 Bft) 95,74 %
09.02.2016 06:32 5,8 C 5,0 C 3,9 C 91 % 15 lf 995,8 hPa 0,0 l/m 0 min 0 min 0 W/m 25,1 km/h (4 Bft) 95,74 %
09.02.2016 06:34 5,9 C 5,0 C 3,9 C 91 % 15 lf 995,7 hPa 0,0 l/m 0 min 2 min 0 W/m 33,5 km/h (5 Bft) 95,74 %
09.02.2016 06:36 5,9 C 5,0 C 3,9 C 91 % 15 lf 995,6 hPa 0,0 l/m 0 min 2 min 0 W/m 25,1 km/h (4 Bft) 96,00 %
09.02.2016 06:38 5,9 C 5,0 C 3,9 C 91 % 15 lf 995,6 hPa 0,0 l/m 0 min 2 min 0 W/m 25,1 km/h (4 Bft) 95,74 %
09.02.2016 06:40 5,9 C 5,0 C 3,3 C 91 % 15 lf 995,5 hPa 0,0 l/m 0 min 0 min 0 W/m 27,2 km/h (4 Bft) 95,74 %
09.02.2016 06:42 5,8 C 5,0 C 3,3 C 91 % 15 lf 995,5 hPa 0,0 l/m 0 min 0 min 0 W/m 20,9 km/h (4 Bft) 93,48 %
09.02.2016 06:44 5,8 C 5,0 C 3,3 C 91 % 15 lf 995,5 hPa 0,0 l/m 0 min 2 min 0 W/m 27,2 km/h (4 Bft) 94,44 %
09.02.2016 06:46 5,8 C 5,0 C 3,3 C 91 % 15 lf 995,5 hPa 0,0 l/m 0 min 2 min 0 W/m 27,2 km/h (4 Bft) 93,10 %
09.02.2016 06:48 5,8 C 5,0 C 3,3 C 91 % 15 lf 995,4 hPa 0,0 l/m 0 min 2 min 0 W/m 27,2 km/h (4 Bft) 95,74 %
09.02.2016 06:50 5,8 C 5,0 C 3,3 C 91 % 15 lf 995,4 hPa 0,0 l/m 0 min 2 min 0 W/m 29,3 km/h (5 Bft) 93,62 %
09.02.2016 06:52 5,8 C 5,0 C 3,3 C 91 % 15 lf 995,4 hPa 0,0 l/m 0 min 2 min 0 W/m 33,5 km/h (5 Bft) 91,49 %
09.02.2016 06:54 5,8 C 5,0 C 3,3 C 91 % 15 lf 995,4 hPa 0,0 l/m 0 min 2 min 0 W/m 27,2 km/h (4 Bft) 94,29 %
09.02.2016 06:56 5,8 C 5,0 C 3,3 C 91 % 15 lf 995,2 hPa 0,0 l/m 0 min 2 min 0 W/m 27,2 km/h (4 Bft) 93,48 %
09.02.2016 06:58 5,8 C 5,0 C 3,3 C 91 % 15 lf 995,2 hPa 0,0 l/m 0 min 0 min 0 W/m 23,0 km/h (4 Bft) 93,62 %
09.02.2016 07:00 5,8 C 5,0 C 3,3 C 90 % 15 lf 995,2 hPa 0,0 l/m 0 min 0 min 0 W/m 16,7 km/h (3 Bft) 91,53 %
09.02.2016 07:02 5,8 C 5,0 C 3,3 C 90 % 15 lf 995,2 hPa 0,0 l/m 0 min 0 min 0 W/m 16,7 km/h (3 Bft) 94,29 %
09.02.2016 07:04 5,8 C 5,0 C 3,3 C 90 % 15 lf 995,2 hPa 0,0 l/m 0 min 0 min 0 W/m 18,8 km/h (3 Bft) 91,49 %
09.02.2016 07:06 5,8 C 5,6 C 3,9 C 90 % 15 lf 995,2 hPa 0,0 l/m 0 min 0 min 0 W/m 35,6 km/h (5 Bft) 94,44 %
09.02.2016 07:08 5,8 C 5,6 C 3,9 C 90 % 15 lf 995,2 hPa 0,0 l/m 0 min 0 min 0 W/m 29,3 km/h (5 Bft) 95,74 %
09.02.2016 07:10 5,8 C 5,6 C 3,9 C 90 % 15 lf 995,2 hPa 0,0 l/m 0 min 0 min 0 W/m 35,6 km/h (5 Bft) 95,74 %
09.02.2016 07:12 5,9 C 5,6 C 3,9 C 90 % 15 lf 995,1 hPa 0,0 l/m 0 min 2 min 0 W/m 29,3 km/h (5 Bft) 97,92 %
09.02.2016 07:14 5,9 C 5,6 C 3,9 C 90 % 15 lf 995,0 hPa 0,0 l/m 0 min 0 min 0 W/m 23,0 km/h (4 Bft) 97,87 %
09.02.2016 07:16 5,9 C 5,6 C 3,9 C 90 % 15 lf 994,9 hPa 0,0 l/m 0 min 0 min 0 W/m 27,2 km/h (4 Bft) 97,87 %
09.02.2016 07:18 5,9 C 5,6 C 3,9 C 89 % 15 lf 994,9 hPa 0,0 l/m 0 min 0 min 0 W/m 27,2 km/h (4 Bft) 100,00 %
09.02.2016 07:20 5,9 C 5,6 C 3,9 C 89 % 15 lf 994,9 hPa 0,0 l/m 0 min 0 min 0 W/m 23,0 km/h (4 Bft) 97,87 %
09.02.2016 07:22 6,0 C 5,6 C 3,9 C 89 % 15 lf 994,9 hPa 0,0 l/m 0 min 0 min 0 W/m 29,3 km/h (5 Bft) 97,92 %
09.02.2016 07:24 6,0 C 5,6 C 3,9 C 89 % 15 lf 994,9 hPa 0,0 l/m 0 min 0 min 0 W/m 23,0 km/h (4 Bft) 97,87 %
09.02.2016 07:26 6,0 C 5,6 C 3,9 C 88 % 15 lf 994,9 hPa 0,0 l/m 0 min 0 min 0 W/m 33,5 km/h (5 Bft) 97,87 %
09.02.2016 07:28 6,1 C 5,6 C 3,9 C 88 % 15 lf 994,8 hPa 0,0 l/m 0 min 0 min 0 W/m 25,1 km/h (4 Bft) 93,62 %
09.02.2016 07:30 6,1 C 5,6 C 3,9 C 88 % 15 lf 994,8 hPa 0,0 l/m 0 min 0 min 0 W/m 31,4 km/h (5 Bft) 97,83 %
09.02.2016 07:32 6,1 C 5,6 C 3,9 C 87 % 15 lf 994,7 hPa 0,0 l/m 0 min 0 min 0 W/m 39,7 km/h (6 Bft) 100,00 %
09.02.2016 07:34 6,1 C 5,6 C 3,9 C 87 % 15 lf 994,8 hPa 0,0 l/m 0 min 0 min 0 W/m 33,5 km/h (5 Bft) 95,74 %
09.02.2016 07:36 6,2 C 5,6 C 3,9 C 87 % 15 lf 994,8 hPa 0,0 l/m 0 min 2 min 0 W/m 35,6 km/h (5 Bft) 95,92 %
09.02.2016 07:38 6,3 C 6,1 C 3,9 C 87 % 14 lf 994,7 hPa 0,0 l/m 0 min 2 min 0 W/m 39,7 km/h (6 Bft) 97,87 %
09.02.2016 07:40 6,3 C 6,1 C 3,9 C 87 % 13 lf 994,8 hPa 0,0 l/m 0 min 0 min 0 W/m 20,9 km/h (4 Bft) 97,87 %
09.02.2016 07:42 6,3 C 6,1 C 3,9 C 86 % 12 lf 994,8 hPa 0,0 l/m 0 min 0 min 0 W/m 23,0 km/h (4 Bft) 97,14 %
09.02.2016 07:44 6,4 C 5,6 C 3,9 C 86 % 12 lf 994,8 hPa 0,0 l/m 0 min 0 min 0 W/m 18,8 km/h (3 Bft) 93,62 %
09.02.2016 07:46 6,4 C 6,1 C 3,9 C 86 % 10 lf 994,7 hPa 0,0 l/m 0 min 0 min 0 W/m 27,2 km/h (4 Bft) 93,62 %
09.02.2016 07:48 6,4 C 6,1 C 3,9 C 86 % 9 lf 994,7 hPa 0,0 l/m 0 min 0 min 0 W/m 29,3 km/h (5 Bft) 93,62 %
09.02.2016 07:50 6,4 C 6,1 C 3,9 C 85 % 6 lf 994,8 hPa 0,0 l/m 0 min 0 min 0 W/m 27,2 km/h (4 Bft) 90,38 %
09.02.2016 07:52 6,4 C 6,1 C 3,9 C 85 % 4 lf 994,7 hPa 0,0 l/m 0 min 0 min 4 W/m 29,3 km/h (5 Bft) 91,49 %
09.02.2016 07:54 6,4 C 6,1 C 3,9 C 85 % 3 lf 994,6 hPa 0,0 l/m 0 min 0 min 5 W/m 33,5 km/h (5 Bft) 95,74 %
09.02.2016 07:56 6,5 C 6,1 C 3,9 C 85 % 2 lf 994,6 hPa 0,0 l/m 0 min 0 min 5 W/m 20,9 km/h (4 Bft) 95,12 %
09.02.2016 07:58 6,5 C 6,1 C 3,9 C 85 % 1 lf 994,5 hPa 0,0 l/m 0 min 0 min 7 W/m 25,1 km/h (4 Bft) 93,62 %
09.02.2016 08:00 6,5 C 6,1 C 3,9 C 84 % 1 lf 994,4 hPa 0,0 l/m 0 min 0 min 7 W/m 14,6 km/h (3 Bft) 93,62 %
09.02.2016 08:02 6,5 C 6,7 C 3,9 C 84 % 0 lf 994,4 hPa 0,0 l/m 0 min 0 min 8 W/m 23,0 km/h (4 Bft) 94,44 %
09.02.2016 08:04 6,5 C 6,7 C 3,9 C 84 % 0 lf 994,4 hPa 0,0 l/m 0 min 0 min 9 W/m 16,7 km/h (3 Bft) 97,87 %
09.02.2016 08:06 6,5 C 6,7 C 3,9 C 84 % 0 lf 994,3 hPa 0,0 l/m 0 min 0 min 11 W/m 29,3 km/h (5 Bft) 98,00 %
09.02.2016 08:08 6,5 C 6,7 C 3,9 C 84 % 0 lf 994,3 hPa 0,0 l/m 0 min 0 min 11 W/m 35,6 km/h (5 Bft) 91,49 %
09.02.2016 08:10 6,5 C 6,7 C 3,9 C 84 % 0 lf 994,2 hPa 0,0 l/m 0 min 0 min 12 W/m 20,9 km/h (4 Bft) 97,87 %
09.02.2016 08:12 6,5 C 6,7 C 3,9 C 84 % 0 lf 994,2 hPa 0,0 l/m 0 min 0 min 13 W/m 20,9 km/h (4 Bft) 100,00 %
09.02.2016 08:14 6,4 C 6,7 C 3,9 C 84 % 0 lf 994,1 hPa 0,0 l/m 0 min 0 min 15 W/m 18,8 km/h (3 Bft) 97,87 %
09.02.2016 08:16 6,4 C 6,7 C 3,9 C 84 % 0 lf 994,0 hPa 0,0 l/m 0 min 0 min 14 W/m 16,7 km/h (3 Bft) 95,74 %
09.02.2016 08:18 6,4 C 6,7 C 3,9 C 84 % 0 lf 993,9 hPa 0,0 l/m 0 min 0 min 14 W/m 33,5 km/h (5 Bft) 95,74 %
09.02.2016 08:20 6,4 C 6,7 C 3,9 C 84 % 0 lf 993,9 hPa 0,0 l/m 0 min 0 min 14 W/m 29,3 km/h (5 Bft) 95,74 %
09.02.2016 08:22 6,4 C 6,7 C 3,9 C 84 % 0 lf 993,9 hPa 0,0 l/m 0 min 0 min 16 W/m 14,6 km/h (3 Bft) 97,83 %
09.02.2016 08:24 6,4 C 6,7 C 3,9 C 84 % 0 lf 993,7 hPa 0,0 l/m 0 min 0 min 19 W/m 25,1 km/h (4 Bft) 97,87 %
09.02.2016 08:26 6,4 C 6,7 C 3,9 C 84 % 0 lf 993,7 hPa 0,0 l/m 0 min 0 min 20 W/m 25,1 km/h (4 Bft) 89,36 %
09.02.2016 08:28 6,4 C 6,7 C 3,9 C 84 % 0 lf 993,7 hPa 0,0 l/m 0 min 0 min 21 W/m 25,1 km/h (4 Bft) 95,74 %
09.02.2016 08:30 6,4 C 6,7 C 3,9 C 84 % 0 lf 993,7 hPa 0,0 l/m 0 min 0 min 23 W/m 20,9 km/h (4 Bft) 95,74 %
09.02.2016 08:32 6,4 C 6,7 C 3,9 C 84 % 0 lf 993,7 hPa 0,0 l/m 0 min 0 min 23 W/m 23,0 km/h (4 Bft) 97,87 %
09.02.2016 08:34 6,4 C 6,7 C 3,9 C 84 % 0 lf 993,6 hPa 0,0 l/m 0 min 0 min 24 W/m 29,3 km/h (5 Bft) 97,83 %
09.02.2016 08:36 6,5 C 7,2 C 3,9 C 84 % 0 lf 993,5 hPa 0,0 l/m 0 min 0 min 26 W/m 33,5 km/h (5 Bft) 95,74 %
09.02.2016 08:38 6,5 C 7,2 C 3,9 C 84 % 0 lf 993,4 hPa 0,0 l/m 0 min 0 min 30 W/m 20,9 km/h (4 Bft) 95,74 %
09.02.2016 08:40 6,5 C 7,2 C 3,9 C 84 % 0 lf 993,5 hPa 0,0 l/m 0 min 0 min 32 W/m 25,1 km/h (4 Bft) 97,87 %
09.02.2016 08:42 6,6 C 7,2 C 3,9 C 84 % 0 lf 993,4 hPa 0,0 l/m 0 min 0 min 31 W/m 29,3 km/h (5 Bft) 95,74 %
09.02.2016 08:44 6,6 C 7,2 C 3,9 C 83 % 0 lf 993,3 hPa 0,0 l/m 0 min 0 min 30 W/m 20,9 km/h (4 Bft) 97,87 %
09.02.2016 08:46 6,6 C 7,2 C 3,9 C 83 % 0 lf 993,2 hPa 0,0 l/m 0 min 0 min 29 W/m 18,8 km/h (3 Bft) 95,65 %
09.02.2016 08:48 6,6 C 7,2 C 3,9 C 83 % 0 lf 993,2 hPa 0,0 l/m 0 min 0 min 28 W/m 14,6 km/h (3 Bft) 95,74 %
09.02.2016 08:50 6,7 C 7,2 C 3,9 C 83 % 0 lf 993,2 hPa 0,0 l/m 0 min 0 min 29 W/m 18,8 km/h (3 Bft) 97,87 %
09.02.2016 08:52 6,7 C 6,7 C 3,9 C 83 % 0 lf 993,0 hPa 0,0 l/m 0 min 0 min 30 W/m 20,9 km/h (4 Bft) 97,87 %
09.02.2016 08:54 6,7 C 7,2 C 3,9 C 83 % 0 lf 992,9 hPa 0,0 l/m 0 min 0 min 30 W/m 20,9 km/h (4 Bft) 97,87 %
09.02.2016 08:56 6,7 C 7,2 C 3,9 C 83 % 0 lf 992,8 hPa 0,0 l/m 0 min 0 min 31 W/m 31,4 km/h (5 Bft) 95,74 %
09.02.2016 08:58 6,7 C 7,2 C 4,4 C 83 % 0 lf 992,7 hPa 0,0 l/m 0 min 0 min 32 W/m 23,0 km/h (4 Bft) 93,48 %
09.02.2016 09:00 6,7 C 7,2 C 4,4 C 83 % 0 lf 992,7 hPa 0,0 l/m 0 min 0 min 33 W/m 31,4 km/h (5 Bft) 97,87 %
09.02.2016 09:02 6,7 C 7,2 C 4,4 C 83 % 0 lf 992,6 hPa 0,0 l/m 0 min 0 min 33 W/m 27,2 km/h (4 Bft) 97,14 %
09.02.2016 09:04 6,7 C 7,2 C 4,4 C 83 % 0 lf 992,4 hPa 0,0 l/m 0 min 0 min 33 W/m 16,7 km/h (3 Bft) 95,74 %
09.02.2016 09:06 6,7 C 7,2 C 4,4 C 83 % 0 lf 992,3 hPa 0,0 l/m 0 min 0 min 35 W/m 14,6 km/h (3 Bft) 94,74 %
09.02.2016 09:08 6,7 C 7,2 C 4,4 C 83 % 0 lf 992,4 hPa 0,0 l/m 0 min 0 min 35 W/m 20,9 km/h (4 Bft) 95,74 %
09.02.2016 09:10 6,8 C 7,2 C 4,4 C 83 % 0 lf 992,3 hPa 0,0 l/m 0 min 0 min 35 W/m 10,5 km/h (2 Bft) 93,48 %
09.02.2016 09:12 6,8 C 7,2 C 4,4 C 83 % 0 lf 992,4 hPa 0,0 l/m 0 min 0 min 36 W/m 12,6 km/h (3 Bft) 95,74 %
09.02.2016 09:14 6,8 C 7,2 C 4,4 C 83 % 0 lf 992,4 hPa 0,0 l/m 0 min 0 min 35 W/m 14,6 km/h (3 Bft) 93,62 %
09.02.2016 09:16 6,8 C 7,2 C 4,4 C 83 % 0 lf 992,5 hPa 0,0 l/m 0 min 0 min 35 W/m 18,8 km/h (3 Bft) 89,36 %
09.02.2016 09:18 6,8 C 7,2 C 4,4 C 83 % 0 lf 992,6 hPa 0,0 l/m 0 min 0 min 33 W/m 18,8 km/h (3 Bft) 95,74 %
09.02.2016 09:20 6,8 C 7,2 C 4,4 C 83 % 0 lf 992,6 hPa 0,0 l/m 0 min 0 min 33 W/m 18,8 km/h (3 Bft) 95,74 %
09.02.2016 09:22 6,8 C 7,2 C 4,4 C 83 % 0 lf 992,5 hPa 0,0 l/m 0 min 0 min 33 W/m 12,6 km/h (3 Bft) 93,62 %
09.02.2016 09:24 6,8 C 7,2 C 4,4 C 83 % 0 lf 992,4 hPa 0,0 l/m 0 min 0 min 33 W/m 14,6 km/h (3 Bft) 93,62 %
09.02.2016 09:26 6,8 C 7,2 C 4,4 C 83 % 0 lf 992,3 hPa 0,0 l/m 0 min 0 min 32 W/m 18,8 km/h (3 Bft) 93,62 %
09.02.2016 09:28 6,8 C 7,2 C 4,4 C 83 % 0 lf 992,2 hPa 0,0 l/m 0 min 0 min 33 W/m 16,7 km/h (3 Bft) 95,74 %
09.02.2016 09:30 6,8 C 7,2 C 4,4 C 83 % 0 lf 992,1 hPa 0,0 l/m 0 min 0 min 33 W/m 18,8 km/h (3 Bft) 93,62 %
09.02.2016 09:32 6,8 C 7,2 C 4,4 C 83 % 0 lf 992,0 hPa 0,0 l/m 0 min 0 min 33 W/m 12,6 km/h (3 Bft) 91,49 %
09.02.2016 09:34 6,8 C 7,2 C 4,4 C 83 % 0 lf 992,0 hPa 0,0 l/m 0 min 0 min 33 W/m 14,6 km/h (3 Bft) 93,48 %
09.02.2016 09:36 6,8 C 7,2 C 4,4 C 83 % 0 lf 992,0 hPa 0,0 l/m 0 min 0 min 32 W/m 16,7 km/h (3 Bft) 91,49 %
09.02.2016 09:38 6,9 C 7,2 C 4,4 C 83 % 0 lf 992,0 hPa 0,0 l/m 0 min 0 min 32 W/m 16,7 km/h (3 Bft) 95,74 %
09.02.2016 09:40 6,9 C 7,2 C 4,4 C 83 % 0 lf 992,0 hPa 0,0 l/m 0 min 0 min 32 W/m 18,8 km/h (3 Bft) 95,74 %
09.02.2016 09:42 6,9 C 7,2 C 4,4 C 83 % 0 lf 991,9 hPa 0,0 l/m 0 min 0 min 30 W/m 14,6 km/h (3 Bft) 93,62 %
09.02.2016 09:44 6,9 C 7,2 C 4,4 C 83 % 0 lf 991,9 hPa 0,0 l/m 0 min 0 min 30 W/m 14,6 km/h (3 Bft) 95,74 %
09.02.2016 09:46 6,9 C 7,2 C 4,4 C 83 % 0 lf 991,9 hPa 0,0 l/m 0 min 0 min 30 W/m 12,6 km/h (3 Bft) 93,48 %
09.02.2016 09:48 6,9 C 7,2 C 4,4 C 83 % 0 lf 991,9 hPa 0,0 l/m 0 min 0 min 28 W/m 10,5 km/h (2 Bft) 93,62 %
09.02.2016 09:50 6,9 C 7,2 C 4,4 C 83 % 0 lf 991,9 hPa 0,0 l/m 0 min 0 min 27 W/m 6,3 km/h (2 Bft) 91,49 %
09.02.2016 09:52 6,9 C 7,2 C 4,4 C 83 % 0 lf 991,9 hPa 0,0 l/m 0 min 0 min 27 W/m 12,6 km/h (3 Bft) 93,62 %
09.02.2016 09:54 6,9 C 7,2 C 4,4 C 83 % 0 lf 991,9 hPa 0,0 l/m 0 min 0 min 26 W/m 10,5 km/h (2 Bft) 97,87 %
09.02.2016 09:56 6,9 C 7,2 C 4,4 C 83 % 0 lf 991,9 hPa 0,0 l/m 0 min 0 min 26 W/m 14,6 km/h (3 Bft) 95,65 %
09.02.2016 09:58 6,9 C 7,2 C 4,4 C 83 % 0 lf 991,8 hPa 0,0 l/m 0 min 0 min 26 W/m 10,5 km/h (2 Bft) 93,62 %
09.02.2016 10:00 6,9 C 7,2 C 4,4 C 83 % 0 lf 991,7 hPa 0,0 l/m 0 min 0 min 26 W/m 10,5 km/h (2 Bft) 97,87 %
09.02.2016 10:02 6,9 C 7,2 C 4,4 C 83 % 0 lf 991,7 hPa 0,0 l/m 0 min 0 min 26 W/m 12,6 km/h (3 Bft) 97,87 %
09.02.2016 10:04 6,9 C 7,2 C 4,4 C 83 % 0 lf 991,7 hPa 0,0 l/m 0 min 0 min 25 W/m 14,6 km/h (3 Bft) 93,62 %
09.02.2016 10:06 6,9 C 7,2 C 4,4 C 83 % 0 lf 991,6 hPa 0,0 l/m 0 min 0 min 25 W/m 16,7 km/h (3 Bft) 95,74 %
09.02.2016 10:08 6,9 C 7,2 C 4,4 C 83 % 0 lf 991,5 hPa 0,0 l/m 0 min 2 min 25 W/m 16,7 km/h (3 Bft) 97,83 %
09.02.2016 10:10 6,9 C 7,2 C 4,4 C 83 % 0 lf 991,6 hPa 0,0 l/m 0 min 2 min 25 W/m 10,5 km/h (2 Bft) 95,74 %
09.02.2016 10:12 6,9 C 7,2 C 4,4 C 83 % 0 lf 991,5 hPa 0,0 l/m 0 min 2 min 25 W/m 8,4 km/h (2 Bft) 97,87 %
09.02.2016 10:14 6,9 C 6,7 C 4,4 C 83 % 0 lf 991,5 hPa 0,0 l/m 0 min 2 min 23 W/m 10,5 km/h (2 Bft) 97,87 %
09.02.2016 10:16 6,9 C 6,7 C 4,4 C 83 % 1 lf 991,5 hPa 0,0 l/m 0 min 2 min 23 W/m 14,6 km/h (3 Bft) 95,74 %
09.02.2016 10:18 6,9 C 6,7 C 4,4 C 84 % 0 lf 991,4 hPa 0,0 l/m 0 min 2 min 22 W/m 12,6 km/h (3 Bft) 97,87 %
09.02.2016 10:20 6,9 C 6,1 C 4,4 C 84 % 1 lf 991,3 hPa 0,0 l/m 0 min 2 min 21 W/m 12,6 km/h (3 Bft) 95,65 %
09.02.2016 10:22 6,9 C 6,1 C 4,4 C 84 % 1 lf 991,2 hPa 0,0 l/m 0 min 2 min 21 W/m 10,5 km/h (2 Bft) 97,87 %
09.02.2016 10:24 6,9 C 5,6 C 4,4 C 84 % 2 lf 991,1 hPa 0,0 l/m 0 min 2 min 21 W/m 10,5 km/h (2 Bft) 95,74 %
09.02.2016 10:26 6,8 C 5,6 C 3,9 C 84 % 4 lf 991,1 hPa 0,0 l/m 0 min 2 min 21 W/m 16,7 km/h (3 Bft) 100,00 %
09.02.2016 10:28 6,8 C 5,6 C 3,9 C 85 % 4 lf 991,0 hPa 0,0 l/m 0 min 2 min 22 W/m 10,5 km/h (2 Bft) 97,87 %
09.02.2016 10:30 6,8 C 5,6 C 3,9 C 85 % 5 lf 990,8 hPa 0,2 l/m 0 min 2 min 23 W/m 12,6 km/h (3 Bft) 100,00 %
09.02.2016 10:32 6,8 C 5,6 C 3,9 C 85 % 9 lf 990,7 hPa 0,0 l/m 0 min 2 min 23 W/m 10,5 km/h (2 Bft) 100,00 %
09.02.2016 10:34 6,8 C 5,6 C 3,9 C 85 % 12 lf 990,6 hPa 0,0 l/m 0 min 2 min 22 W/m 12,6 km/h (3 Bft) 97,87 %
09.02.2016 10:36 6,8 C 5,6 C 3,9 C 85 % 13 lf 990,5 hPa 0,0 l/m 0 min 2 min 21 W/m 8,4 km/h (2 Bft) 97,87 %
09.02.2016 10:38 6,7 C 5,6 C 3,9 C 86 % 15 lf 990,5 hPa 0,2 l/m 0 min 2 min 22 W/m 10,5 km/h (2 Bft) 97,87 %
09.02.2016 10:40 6,7 C 5,0 C 3,9 C 86 % 15 lf 990,4 hPa 0,0 l/m 0 min 2 min 22 W/m 14,6 km/h (3 Bft) 100,00 %
09.02.2016 10:42 6,7 C 5,0 C 3,9 C 86 % 15 lf 990,4 hPa 0,0 l/m 0 min 2 min 21 W/m 16,7 km/h (3 Bft) 100,00 %
09.02.2016 10:44 6,7 C 5,0 C 3,9 C 86 % 15 lf 990,3 hPa 0,0 l/m 0 min 2 min 21 W/m 14,6 km/h (3 Bft) 100,00 %
09.02.2016 10:46 6,6 C 5,0 C 3,9 C 87 % 15 lf 990,2 hPa 0,2 l/m 0 min 2 min 19 W/m 18,8 km/h (3 Bft) 97,87 %
09.02.2016 10:48 6,6 C 5,0 C 3,9 C 87 % 15 lf 990,0 hPa 0,0 l/m 0 min 2 min 19 W/m 16,7 km/h (3 Bft) 100,00 %
09.02.2016 10:50 6,6 C 5,0 C 3,9 C 87 % 15 lf 990,0 hPa 0,2 l/m 0 min 2 min 19 W/m 16,7 km/h (3 Bft) 100,00 %
09.02.2016 10:52 6,5 C 5,0 C 3,9 C 87 % 15 lf 989,9 hPa 0,0 l/m 0 min 2 min 20 W/m 23,0 km/h (4 Bft) 100,00 %
09.02.2016 10:54 6,4 C 5,0 C 3,9 C 88 % 15 lf 989,8 hPa 0,2 l/m 0 min 2 min 21 W/m 14,6 km/h (3 Bft) 100,00 %
09.02.2016 10:56 6,4 C 5,0 C 3,9 C 88 % 15 lf 989,7 hPa 0,0 l/m 0 min 2 min 21 W/m 14,6 km/h (3 Bft) 95,74 %
09.02.2016 10:58 6,4 C 5,0 C 3,9 C 88 % 15 lf 989,6 hPa 0,2 l/m 0 min 2 min 24 W/m 18,8 km/h (3 Bft) 95,74 %
09.02.2016 11:00 6,3 C 5,0 C 3,9 C 88 % 15 lf 989,5 hPa 0,0 l/m 0 min 2 min 26 W/m 12,6 km/h (3 Bft) 97,87 %
09.02.2016 11:02 6,3 C 5,0 C 3,9 C 88 % 15 lf 989,4 hPa 0,0 l/m 0 min 2 min 26 W/m 14,6 km/h (3 Bft) 97,92 %
09.02.2016 11:04 6,3 C 5,0 C 3,9 C 89 % 15 lf 989,2 hPa 0,2 l/m 0 min 2 min 28 W/m 18,8 km/h (3 Bft) 100,00 %
09.02.2016 11:06 6,2 C 5,0 C 3,9 C 89 % 15 lf 989,1 hPa 0,2 l/m 0 min 2 min 29 W/m 16,7 km/h (3 Bft) 95,65 %
09.02.2016 11:08 6,2 C 5,0 C 3,9 C 89 % 15 lf 988,9 hPa 0,0 l/m 0 min 2 min 30 W/m 14,6 km/h (3 Bft) 97,87 %
09.02.2016 11:10 6,1 C 5,0 C 3,9 C 90 % 15 lf 988,8 hPa 0,0 l/m 0 min 2 min 32 W/m 16,7 km/h (3 Bft) 97,87 %
09.02.2016 11:12 6,1 C 5,0 C 3,9 C 90 % 15 lf 988,6 hPa 0,2 l/m 0 min 2 min 32 W/m 16,7 km/h (3 Bft) 95,74 %
09.02.2016 11:14 6,1 C 5,0 C 3,9 C 90 % 15 lf 988,5 hPa 0,2 l/m 0 min 2 min 32 W/m 14,6 km/h (3 Bft) 97,87 %
09.02.2016 11:16 6,0 C 5,0 C 3,9 C 90 % 15 lf 988,5 hPa 0,0 l/m 0 min 2 min 31 W/m 18,8 km/h (3 Bft) 93,62 %
09.02.2016 11:18 6,0 C 5,0 C 3,9 C 91 % 15 lf 988,4 hPa 0,0 l/m 0 min 2 min 30 W/m 14,6 km/h (3 Bft) 95,65 %
09.02.2016 11:20 5,9 C 5,0 C 3,9 C 91 % 15 lf 988,2 hPa 0,2 l/m 0 min 2 min 28 W/m 20,9 km/h (4 Bft) 97,87 %
09.02.2016 11:22 5,9 C 5,0 C 3,9 C 91 % 15 lf 988,1 hPa 0,0 l/m 0 min 2 min 26 W/m 16,7 km/h (3 Bft) 97,87 %
09.02.2016 11:24 5,9 C 5,0 C 3,9 C 91 % 15 lf 988,1 hPa 0,2 l/m 0 min 2 min 25 W/m 14,6 km/h (3 Bft) 95,74 %
09.02.2016 11:26 5,8 C 5,0 C 3,9 C 91 % 15 lf 988,1 hPa 0,0 l/m 0 min 2 min 22 W/m 16,7 km/h (3 Bft) 93,62 %
09.02.2016 11:28 5,8 C 5,0 C 3,9 C 92 % 15 lf 988,0 hPa 0,2 l/m 0 min 2 min 23 W/m 16,7 km/h (3 Bft) 95,74 %
09.02.2016 11:30 5,8 C 5,0 C 3,9 C 92 % 15 lf 987,9 hPa 0,0 l/m 0 min 2 min 22 W/m 23,0 km/h (4 Bft) 97,83 %
09.02.2016 11:32 5,8 C 5,0 C 3,9 C 92 % 15 lf 987,9 hPa 0,2 l/m 0 min 2 min 22 W/m 29,3 km/h (5 Bft) 95,74 %
09.02.2016 11:34 5,8 C 5,0 C 3,9 C 92 % 15 lf 987,9 hPa 0,0 l/m 0 min 2 min 25 W/m 20,9 km/h (4 Bft) 93,62 %
09.02.2016 11:36 5,8 C 5,0 C 3,9 C 92 % 15 lf 987,7 hPa 0,2 l/m 0 min 2 min 24 W/m 16,7 km/h (3 Bft) 95,74 %
09.02.2016 11:38 5,7 C 5,0 C 3,9 C 92 % 15 lf 987,6 hPa 0,0 l/m 0 min 2 min 23 W/m 18,8 km/h (3 Bft) 95,74 %
09.02.2016 11:40 5,7 C 5,0 C 3,9 C 92 % 15 lf 987,5 hPa 0,2 l/m 0 min 2 min 22 W/m 25,1 km/h (4 Bft) 95,74 %
09.02.2016 11:42 5,7 C 5,0 C 3,9 C 92 % 15 lf 987,4 hPa 0,2 l/m 0 min 2 min 20 W/m 27,2 km/h (4 Bft) 93,48 %
09.02.2016 11:44 5,7 C 5,0 C 3,9 C 93 % 15 lf 987,3 hPa 0,0 l/m 0 min 2 min 19 W/m 20,9 km/h (4 Bft) 97,87 %
09.02.2016 11:46 5,7 C 5,0 C 3,9 C 93 % 15 lf 987,2 hPa 0,2 l/m 0 min 2 min 18 W/m 23,0 km/h (4 Bft) 95,74 %
09.02.2016 11:48 5,7 C 5,0 C 3,9 C 93 % 15 lf 987,0 hPa 0,2 l/m 0 min 2 min 19 W/m 25,1 km/h (4 Bft) 93,62 %
09.02.2016 11:50 5,7 C 5,0 C 3,9 C 93 % 15 lf 986,9 hPa 0,0 l/m 0 min 2 min 19 W/m 29,3 km/h (5 Bft) 93,62 %
09.02.2016 11:52 5,6 C 5,0 C 3,9 C 93 % 15 lf 986,7 hPa 0,2 l/m 0 min 2 min 22 W/m 25,1 km/h (4 Bft) 97,83 %
09.02.2016 11:54 5,6 C 5,0 C 3,9 C 93 % 15 lf 986,5 hPa 0,2 l/m 0 min 2 min 25 W/m 27,2 km/h (4 Bft) 97,87 %
09.02.2016 11:56 5,6 C 5,0 C 3,9 C 93 % 15 lf 986,5 hPa 0,2 l/m 0 min 2 min 24 W/m 23,0 km/h (4 Bft) 93,62 %
09.02.2016 11:58 5,6 C 5,0 C 3,9 C 93 % 15 lf 986,3 hPa 0,0 l/m 0 min 2 min 25 W/m 29,3 km/h (5 Bft) 97,87 %
09.02.2016 12:00 5,6 C 5,0 C 3,9 C 93 % 15 lf 986,2 hPa 0,2 l/m 0 min 2 min 23 W/m 27,2 km/h (4 Bft) 97,87 %
09.02.2016 12:02 5,6 C 5,0 C 3,9 C 94 % 15 lf 986,1 hPa 0,2 l/m 0 min 2 min 21 W/m 25,1 km/h (4 Bft) 95,74 %
09.02.2016 12:04 5,6 C 5,0 C 3,9 C 94 % 15 lf 986,0 hPa 0,0 l/m 0 min 2 min 19 W/m 20,9 km/h (4 Bft) 91,43 %
09.02.2016 12:06 5,6 C 5,0 C 3,9 C 94 % 15 lf 985,9 hPa 0,2 l/m 0 min 2 min 20 W/m 27,2 km/h (4 Bft) 93,62 %
09.02.2016 12:08 5,5 C 5,0 C 3,9 C 94 % 15 lf 985,8 hPa 0,0 l/m 0 min 2 min 21 W/m 25,1 km/h (4 Bft) 95,65 %
09.02.2016 12:10 5,5 C 5,0 C 3,9 C 94 % 15 lf 985,7 hPa 0,2 l/m 0 min 2 min 20 W/m 20,9 km/h (4 Bft) 95,74 %
09.02.2016 12:12 5,5 C 5,0 C 3,9 C 94 % 15 lf 985,6 hPa 0,0 l/m 0 min 2 min 19 W/m 27,2 km/h (4 Bft) 95,74 %
09.02.2016 12:14 5,5 C 5,0 C 3,9 C 94 % 15 lf 985,4 hPa 0,2 l/m 0 min 2 min 21 W/m 23,0 km/h (4 Bft) 97,87 %
09.02.2016 12:16 5,4 C 5,0 C 3,9 C 94 % 15 lf 985,2 hPa 0,2 l/m 0 min 2 min 21 W/m 35,6 km/h (5 Bft) 95,74 %
09.02.2016 12:18 5,4 C 5,0 C 3,9 C 94 % 15 lf 985,0 hPa 0,2 l/m 0 min 2 min 23 W/m 20,9 km/h (4 Bft) 95,74 %
09.02.2016 12:20 5,4 C 5,0 C 3,9 C 94 % 15 lf 985,0 hPa 0,0 l/m 0 min 2 min 22 W/m 23,0 km/h (4 Bft) 97,83 %
09.02.2016 12:22 5,4 C 5,0 C 3,9 C 94 % 15 lf 985,0 hPa 0,2 l/m 0 min 2 min 19 W/m 23,0 km/h (4 Bft) 95,74 %
09.02.2016 12:24 5,4 C 5,0 C 3,9 C 94 % 15 lf 984,8 hPa 0,0 l/m 0 min 2 min 15 W/m 27,2 km/h (4 Bft) 95,74 %
09.02.2016 12:26 5,4 C 5,0 C 3,9 C 94 % 15 lf 984,7 hPa 0,2 l/m 0 min 2 min 11 W/m 27,2 km/h (4 Bft) 97,87 %
09.02.2016 12:28 5,4 C 5,0 C 3,9 C 94 % 15 lf 984,5 hPa 0,0 l/m 0 min 2 min 11 W/m 29,3 km/h (5 Bft) 95,74 %
09.02.2016 12:30 5,3 C 5,0 C 3,9 C 95 % 15 lf 984,4 hPa 0,2 l/m 0 min 2 min 12 W/m 20,9 km/h (4 Bft) 97,87 %
09.02.2016 12:32 5,3 C 5,0 C 3,9 C 95 % 15 lf 984,3 hPa 0,0 l/m 0 min 2 min 16 W/m 23,0 km/h (4 Bft) 97,83 %
09.02.2016 12:34 5,3 C 5,0 C 3,9 C 95 % 15 lf 984,2 hPa 0,2 l/m 0 min 2 min 18 W/m 16,7 km/h (3 Bft) 97,87 %
09.02.2016 12:36 5,3 C 5,0 C 3,9 C 95 % 15 lf 984,0 hPa 0,2 l/m 0 min 2 min 18 W/m 23,0 km/h (4 Bft) 95,74 %
09.02.2016 12:38 5,3 C 5,0 C 3,9 C 95 % 15 lf 983,9 hPa 0,0 l/m 0 min 2 min 21 W/m 20,9 km/h (4 Bft) 97,87 %
09.02.2016 12:40 5,3 C 5,0 C 3,9 C 95 % 15 lf 983,8 hPa 0,2 l/m 0 min 2 min 21 W/m 23,0 km/h (4 Bft) 93,62 %
09.02.2016 12:42 5,3 C 5,0 C 3,9 C 95 % 15 lf 983,5 hPa 0,2 l/m 0 min 2 min 20 W/m 18,8 km/h (3 Bft) 93,48 %
09.02.2016 12:44 5,3 C 5,0 C 3,9 C 95 % 15 lf 983,5 hPa 0,2 l/m 0 min 2 min 18 W/m 20,9 km/h (4 Bft) 91,49 %
09.02.2016 12:46 5,3 C 5,0 C 3,9 C 95 % 15 lf 983,5 hPa 0,2 l/m 0 min 2 min 15 W/m 25,1 km/h (4 Bft) 89,36 %
09.02.2016 12:48 5,3 C 5,0 C 3,9 C 95 % 15 lf 983,5 hPa 0,2 l/m 0 min 2 min 13 W/m 20,9 km/h (4 Bft) 97,87 %
09.02.2016 12:50 5,3 C 5,0 C 3,9 C 95 % 15 lf 983,2 hPa 0,2 l/m 0 min 2 min 12 W/m 25,1 km/h (4 Bft) 89,36 %
09.02.2016 12:52 5,3 C 5,0 C 3,9 C 95 % 15 lf 982,9 hPa 0,0 l/m 0 min 2 min 15 W/m 33,5 km/h (5 Bft) 95,74 %
09.02.2016 12:54 5,3 C 5,0 C 3,9 C 95 % 15 lf 982,7 hPa 0,2 l/m 0 min 2 min 20 W/m 37,7 km/h (5 Bft) 93,48 %
09.02.2016 12:56 5,3 C 5,0 C 3,9 C 95 % 15 lf 982,3 hPa 0,2 l/m 0 min 2 min 23 W/m 31,4 km/h (5 Bft) 89,36 %
09.02.2016 12:58 5,3 C 5,0 C 3,9 C 95 % 15 lf 982,2 hPa 0,2 l/m 0 min 2 min 19 W/m 31,4 km/h (5 Bft) 91,49 %
09.02.2016 13:00 5,3 C 5,0 C 3,9 C 95 % 15 lf 982,1 hPa 0,2 l/m 0 min 2 min 19 W/m 35,6 km/h (5 Bft) 91,49 %
09.02.2016 13:02 5,3 C 5,0 C 3,9 C 95 % 15 lf 982,1 hPa 0,0 l/m 0 min 2 min 18 W/m 23,0 km/h (4 Bft) 91,49 %
09.02.2016 13:04 5,3 C 5,0 C 3,9 C 95 % 15 lf 981,9 hPa 0,0 l/m 0 min 2 min 18 W/m 27,2 km/h (4 Bft) 89,36 %
09.02.2016 13:06 5,3 C 5,0 C 3,9 C 95 % 15 lf 981,8 hPa 0,0 l/m 0 min 2 min 18 W/m 31,4 km/h (5 Bft) 93,62 %
09.02.2016 13:08 5,3 C 5,6 C 3,9 C 95 % 15 lf 981,5 hPa 0,0 l/m 0 min 0 min 19 W/m 31,4 km/h (5 Bft) 91,30 %
09.02.2016 13:10 5,4 C 5,6 C 3,9 C 96 % 15 lf 981,5 hPa 0,0 l/m 0 min 0 min 20 W/m 20,9 km/h (4 Bft) 93,62 %
09.02.2016 13:12 5,4 C 5,6 C 4,4 C 96 % 15 lf 981,3 hPa 0,0 l/m 0 min 2 min 24 W/m 31,4 km/h (5 Bft) 93,62 %
09.02.2016 13:14 5,4 C 5,6 C 4,4 C 96 % 15 lf 981,3 hPa 0,0 l/m 0 min 0 min 22 W/m 25,1 km/h (4 Bft) 93,62 %
09.02.2016 13:16 5,4 C 5,6 C 4,4 C 96 % 15 lf 981,1 hPa 0,0 l/m 0 min 2 min 31 W/m 20,9 km/h (4 Bft) 93,62 %
09.02.2016 13:18 5,4 C 5,6 C 4,4 C 96 % 15 lf 981,0 hPa 0,0 l/m 0 min 2 min 44 W/m 25,1 km/h (4 Bft) 93,48 %
09.02.2016 13:20 5,5 C 5,6 C 4,4 C 96 % 15 lf 980,7 hPa 0,0 l/m 0 min 2 min 54 W/m 23,0 km/h (4 Bft) 93,62 %
09.02.2016 13:22 5,6 C 5,6 C 4,4 C 96 % 15 lf 980,6 hPa 0,0 l/m 0 min 0 min 65 W/m 16,7 km/h (3 Bft) 93,62 %
09.02.2016 13:24 5,6 C 6,1 C 4,4 C 96 % 15 lf 980,6 hPa 0,0 l/m 0 min 0 min 65 W/m 18,8 km/h (3 Bft) 97,87 %
09.02.2016 13:26 5,6 C 6,1 C 4,4 C 96 % 15 lf 980,4 hPa 0,0 l/m 0 min 0 min 72 W/m 20,9 km/h (4 Bft) 95,74 %
09.02.2016 13:28 5,7 C 6,1 C 5,0 C 96 % 15 lf 980,4 hPa 0,0 l/m 0 min 0 min 70 W/m 23,0 km/h (4 Bft) 95,74 %
09.02.2016 13:30 5,7 C 6,1 C 4,4 C 96 % 15 lf 980,2 hPa 0,0 l/m 0 min 0 min 63 W/m 27,2 km/h (4 Bft) 100,00 %
09.02.2016 13:32 5,8 C 6,1 C 4,4 C 96 % 15 lf 980,1 hPa 0,0 l/m 0 min 0 min 55 W/m 18,8 km/h (3 Bft) 97,87 %
09.02.2016 13:34 5,8 C 6,1 C 5,0 C 96 % 15 lf 979,9 hPa 0,0 l/m 0 min 0 min 66 W/m 23,0 km/h (4 Bft) 100,00 %
09.02.2016 13:36 5,8 C 6,1 C 5,0 C 96 % 15 lf 979,6 hPa 0,0 l/m 0 min 0 min 85 W/m 29,3 km/h (5 Bft) 97,87 %
09.02.2016 13:38 5,9 C 6,1 C 5,0 C 96 % 15 lf 979,6 hPa 0,0 l/m 0 min 0 min 92 W/m 25,1 km/h (4 Bft) 93,62 %
09.02.2016 13:40 5,9 C 6,1 C 5,0 C 96 % 15 lf 979,6 hPa 0,0 l/m 0 min 0 min 88 W/m 27,2 km/h (4 Bft) 97,87 %
09.02.2016 13:42 6,0 C 6,1 C 5,0 C 96 % 15 lf 979,5 hPa 0,0 l/m 0 min 0 min 94 W/m 25,1 km/h (4 Bft) 100,00 %
09.02.2016 13:44 6,1 C 6,7 C 5,0 C 96 % 15 lf 979,4 hPa 0,0 l/m 0 min 0 min 98 W/m 31,4 km/h (5 Bft) 97,87 %
09.02.2016 13:46 6,1 C 6,7 C 5,0 C 96 % 15 lf 979,1 hPa 0,0 l/m 0 min 0 min 92 W/m 25,1 km/h (4 Bft) 93,62 %
09.02.2016 13:48 6,1 C 6,7 C 5,0 C 96 % 15 lf 979,2 hPa 0,2 l/m 0 min 0 min 79 W/m 29,3 km/h (5 Bft) 95,74 %
09.02.2016 13:50 6,2 C 6,7 C 5,0 C 96 % 15 lf 979,0 hPa 0,0 l/m 0 min 0 min 69 W/m 20,9 km/h (4 Bft) 97,87 %
09.02.2016 13:52 6,2 C 6,7 C 5,0 C 96 % 15 lf 979,0 hPa 0,0 l/m 0 min 0 min 48 W/m 25,1 km/h (4 Bft) 97,83 %
09.02.2016 13:54 6,2 C 6,7 C 5,0 C 96 % 15 lf 978,9 hPa 0,0 l/m 0 min 0 min 42 W/m 16,7 km/h (3 Bft) 97,87 %
09.02.2016 13:56 6,3 C 6,7 C 5,0 C 96 % 15 lf 978,9 hPa 0,0 l/m 0 min 0 min 35 W/m 20,9 km/h (4 Bft) 95,74 %
09.02.2016 13:58 6,3 C 6,7 C 5,0 C 96 % 15 lf 978,7 hPa 0,0 l/m 0 min 2 min 38 W/m 18,8 km/h (3 Bft) 97,87 %
09.02.2016 14:00 6,3 C 6,7 C 5,0 C 96 % 15 lf 978,6 hPa 0,0 l/m 0 min 2 min 39 W/m 29,3 km/h (5 Bft) 100,00 %
09.02.2016 14:02 6,4 C 6,7 C 5,0 C 96 % 15 lf 978,4 hPa 0,0 l/m 0 min 2 min 37 W/m 20,9 km/h (4 Bft) 93,62 %
09.02.2016 14:04 6,4 C 6,7 C 5,0 C 96 % 15 lf 978,3 hPa 0,0 l/m 0 min 2 min 34 W/m 25,1 km/h (4 Bft) 100,00 %
09.02.2016 14:06 6,4 C 6,7 C 5,0 C 96 % 15 lf 978,1 hPa 0,0 l/m 0 min 2 min 41 W/m 20,9 km/h (4 Bft) 94,74 %
09.02.2016 14:08 6,4 C 6,7 C 5,0 C 96 % 15 lf 978,0 hPa 0,0 l/m 0 min 2 min 46 W/m 25,1 km/h (4 Bft) 97,87 %
09.02.2016 14:10 6,5 C 6,7 C 5,0 C 96 % 15 lf 978,0 hPa 0,0 l/m 0 min 2 min 44 W/m 23,0 km/h (4 Bft) 95,74 %
09.02.2016 14:12 6,5 C 6,7 C 5,0 C 97 % 15 lf 977,9 hPa 0,0 l/m 0 min 2 min 40 W/m 18,8 km/h (3 Bft) 95,74 %
09.02.2016 14:14 6,6 C 6,7 C 5,6 C 97 % 15 lf 977,7 hPa 0,2 l/m 0 min 2 min 40 W/m 18,8 km/h (3 Bft) 97,83 %
09.02.2016 14:16 6,6 C 6,7 C 5,6 C 97 % 15 lf 977,5 hPa 0,0 l/m 0 min 2 min 40 W/m 23,0 km/h (4 Bft) 97,87 %
09.02.2016 14:18 6,6 C 6,7 C 5,6 C 97 % 15 lf 977,5 hPa 0,0 l/m 0 min 2 min 40 W/m 20,9 km/h (4 Bft) 95,74 %
09.02.2016 14:20 6,6 C 6,7 C 5,6 C 97 % 15 lf 977,4 hPa 0,0 l/m 0 min 2 min 36 W/m 20,9 km/h (4 Bft) 97,87 %
09.02.2016 14:22 6,6 C 6,7 C 5,6 C 97 % 15 lf 977,3 hPa 0,0 l/m 0 min 2 min 31 W/m 20,9 km/h (4 Bft) 97,87 %
09.02.2016 14:24 6,7 C 6,7 C 5,6 C 97 % 15 lf 977,2 hPa 0,0 l/m 0 min 2 min 50 W/m 16,7 km/h (3 Bft) 97,87 %
09.02.2016 14:26 6,7 C 6,7 C 5,6 C 97 % 15 lf 977,0 hPa 0,0 l/m 0 min 2 min 72 W/m 16,7 km/h (3 Bft) 95,65 %
09.02.2016 14:28 6,7 C 6,7 C 5,6 C 97 % 15 lf 977,0 hPa 0,0 l/m 0 min 2 min 67 W/m 23,0 km/h (4 Bft) 95,74 %
09.02.2016 14:30 6,8 C 6,7 C 5,6 C 97 % 15 lf 976,9 hPa 0,2 l/m 0 min 2 min 62 W/m 25,1 km/h (4 Bft) 97,87 %
09.02.2016 14:32 6,8 C 6,7 C 5,6 C 97 % 15 lf 976,8 hPa 0,0 l/m 0 min 2 min 67 W/m 23,0 km/h (4 Bft) 97,87 %
09.02.2016 14:34 6,8 C 6,7 C 5,6 C 97 % 15 lf 976,7 hPa 0,0 l/m 0 min 2 min 74 W/m 31,4 km/h (5 Bft) 93,62 %
09.02.2016 14:36 6,9 C 6,7 C 5,6 C 97 % 15 lf 976,6 hPa 0,0 l/m 0 min 2 min 64 W/m 33,5 km/h (5 Bft) 91,49 %
09.02.2016 14:38 6,9 C 6,7 C 5,6 C 97 % 15 lf 976,5 hPa 0,0 l/m 0 min 2 min 75 W/m 29,3 km/h (5 Bft) 95,65 %
09.02.2016 14:40 6,9 C 6,7 C 5,6 C 97 % 15 lf 976,5 hPa 0,0 l/m 0 min 2 min 72 W/m 25,1 km/h (4 Bft) 95,74 %
09.02.2016 14:42 6,9 C 6,7 C 5,6 C 97 % 15 lf 976,3 hPa 0,0 l/m 0 min 2 min 62 W/m 46,0 km/h (6 Bft) 95,74 %
09.02.2016 14:44 7,0 C 7,2 C 5,6 C 97 % 15 lf 976,3 hPa 0,0 l/m 0 min 2 min 91 W/m 18,8 km/h (3 Bft) 95,74 %
09.02.2016 14:46 7,0 C 7,2 C 6,1 C 97 % 15 lf 976,1 hPa 0,2 l/m 0 min 2 min 108 W/m 23,0 km/h (4 Bft) 95,74 %
09.02.2016 14:48 7,1 C 7,2 C 6,1 C 97 % 15 lf 976,1 hPa 0,0 l/m 0 min 2 min 101 W/m 29,3 km/h (5 Bft) 93,48 %
09.02.2016 14:50 7,1 C 7,2 C 6,1 C 97 % 15 lf 976,2 hPa 0,0 l/m 0 min 2 min 88 W/m 27,2 km/h (4 Bft) 95,74 %
09.02.2016 14:52 7,2 C 7,2 C 6,1 C 97 % 15 lf 976,3 hPa 0,0 l/m 0 min 2 min 71 W/m 23,0 km/h (4 Bft) 95,74 %
09.02.2016 14:54 7,2 C 7,2 C 6,1 C 97 % 15 lf 976,1 hPa 0,0 l/m 0 min 2 min 54 W/m 25,1 km/h (4 Bft) 95,74 %
09.02.2016 14:56 7,2 C 7,2 C 6,1 C 97 % 15 lf 976,1 hPa 0,0 l/m 0 min 0 min 41 W/m 27,2 km/h (4 Bft) 93,62 %
09.02.2016 14:58 7,2 C 7,2 C 6,1 C 97 % 15 lf 976,1 hPa 0,0 l/m 0 min 2 min 41 W/m 23,0 km/h (4 Bft) 97,87 %
09.02.2016 15:00 7,3 C 7,2 C 6,1 C 97 % 15 lf 976,1 hPa 0,0 l/m 0 min 2 min 63 W/m 29,3 km/h (5 Bft) 97,83 %
09.02.2016 15:02 7,3 C 7,2 C 6,1 C 97 % 15 lf 976,0 hPa 0,0 l/m 0 min 0 min 69 W/m 33,5 km/h (5 Bft) 95,74 %
09.02.2016 15:04 7,3 C 7,2 C 6,1 C 97 % 15 lf 975,9 hPa 0,0 l/m 0 min 2 min 59 W/m 23,0 km/h (4 Bft) 97,87 %
09.02.2016 15:06 7,3 C 7,2 C 6,1 C 97 % 15 lf 975,9 hPa 0,0 l/m 0 min 2 min 51 W/m 23,0 km/h (4 Bft) 95,74 %
09.02.2016 15:08 7,4 C 7,2 C 6,1 C 97 % 15 lf 975,7 hPa 0,0 l/m 0 min 0 min 47 W/m 20,9 km/h (4 Bft) 97,87 %
09.02.2016 15:10 7,4 C 7,2 C 6,1 C 97 % 15 lf 975,7 hPa 0,0 l/m 0 min 2 min 40 W/m 23,0 km/h (4 Bft) 97,87 %
09.02.2016 15:12 7,4 C 7,2 C 6,1 C 97 % 15 lf 975,7 hPa 0,0 l/m 0 min 0 min 39 W/m 16,7 km/h (3 Bft) 97,83 %
09.02.2016 15:14 7,4 C 7,2 C 6,1 C 97 % 15 lf 975,6 hPa 0,0 l/m 0 min 2 min 39 W/m 18,8 km/h (3 Bft) 97,87 %
09.02.2016 15:16 7,4 C 7,8 C 6,1 C 97 % 15 lf 975,5 hPa 0,0 l/m 0 min 0 min 40 W/m 23,0 km/h (4 Bft) 95,74 %
09.02.2016 15:18 7,5 C 7,8 C 6,1 C 97 % 15 lf 975,4 hPa 0,0 l/m 0 min 0 min 37 W/m 18,8 km/h (3 Bft) 100,00 %
09.02.2016 15:20 7,5 C 7,8 C 6,1 C 97 % 15 lf 975,5 hPa 0,0 l/m 0 min 0 min 33 W/m 14,6 km/h (3 Bft) 97,87 %
09.02.2016 15:22 7,6 C 7,8 C 6,1 C 97 % 15 lf 975,6 hPa 0,0 l/m 0 min 0 min 32 W/m 18,8 km/h (3 Bft) 95,74 %
09.02.2016 15:24 7,6 C 7,8 C 6,1 C 97 % 15 lf 975,5 hPa 0,0 l/m 0 min 0 min 29 W/m 20,9 km/h (4 Bft) 100,00 %
09.02.2016 15:26 7,6 C 7,8 C 6,1 C 97 % 15 lf 975,6 hPa 0,0 l/m 0 min 0 min 25 W/m 18,8 km/h (3 Bft) 100,00 %
09.02.2016 15:28 7,6 C 7,8 C 6,1 C 97 % 15 lf 975,6 hPa 0,0 l/m 0 min 0 min 21 W/m 16,7 km/h (3 Bft) 100,00 %
09.02.2016 15:30 7,6 C 7,8 C 6,1 C 97 % 15 lf 975,4 hPa 0,0 l/m 0 min 0 min 18 W/m 20,9 km/h (4 Bft) 100,00 %
09.02.2016 15:32 7,7 C 8,3 C 6,7 C 97 % 15 lf 975,4 hPa 0,0 l/m 0 min 0 min 16 W/m 20,9 km/h (4 Bft) 95,74 %
09.02.2016 15:34 7,7 C 8,3 C 6,7 C 97 % 15 lf 975,4 hPa 0,0 l/m 0 min 0 min 16 W/m 29,3 km/h (5 Bft) 95,74 %
09.02.2016 15:36 7,8 C 8,3 C 6,7 C 97 % 15 lf 975,4 hPa 0,0 l/m 0 min 0 min 16 W/m 31,4 km/h (5 Bft) 95,65 %
09.02.2016 15:38 7,9 C 8,3 C 6,7 C 97 % 15 lf 975,4 hPa 0,0 l/m 0 min 0 min 15 W/m 33,5 km/h (5 Bft) 97,87 %
09.02.2016 15:40 8,1 C 8,9 C 6,7 C 97 % 15 lf 975,4 hPa 0,0 l/m 0 min 2 min 13 W/m 48,1 km/h (6 Bft) 95,74 %
09.02.2016 15:42 8,2 C 8,9 C 6,7 C 97 % 15 lf 975,5 hPa 0,0 l/m 0 min 2 min 11 W/m 46,0 km/h (6 Bft) 97,87 %
09.02.2016 15:44 8,3 C 8,9 C 6,7 C 97 % 15 lf 975,4 hPa 0,0 l/m 0 min 2 min 11 W/m 41,8 km/h (6 Bft) 97,87 %
09.02.2016 15:46 8,4 C 8,3 C 6,7 C 97 % 15 lf 975,7 hPa 0,0 l/m 0 min 2 min 11 W/m 54,4 km/h (7 Bft) 93,62 %
09.02.2016 15:48 8,6 C 8,3 C 6,7 C 97 % 15 lf 975,6 hPa 0,0 l/m 0 min 2 min 9 W/m 60,7 km/h (7 Bft) 100,00 %
09.02.2016 15:50 8,8 C 8,3 C 6,7 C 97 % 15 lf 975,7 hPa 0,0 l/m 0 min 2 min 10 W/m 62,8 km/h (8 Bft) 95,74 %
09.02.2016 15:52 8,8 C 7,8 C 6,7 C 97 % 15 lf 974,9 hPa 0,0 l/m 0 min 2 min 12 W/m 48,1 km/h (6 Bft) 97,87 %
09.02.2016 15:54 8,9 C 7,8 C 6,7 C 96 % 15 lf 974,7 hPa 0,0 l/m 0 min 2 min 20 W/m 46,0 km/h (6 Bft) 97,87 %
09.02.2016 15:56 8,9 C 7,8 C 6,7 C 96 % 15 lf 975,0 hPa 0,0 l/m 0 min 2 min 26 W/m 29,3 km/h (5 Bft) 95,74 %
09.02.2016 15:58 8,9 C 7,8 C 6,7 C 95 % 15 lf 975,2 hPa 0,0 l/m 0 min 0 min 26 W/m 35,6 km/h (5 Bft) 89,13 %
09.02.2016 16:00 8,9 C 7,8 C 6,7 C 95 % 15 lf 975,1 hPa 0,0 l/m 0 min 0 min 26 W/m 33,5 km/h (5 Bft) 91,49 %
09.02.2016 16:02 8,9 C 7,8 C 6,7 C 94 % 15 lf 975,2 hPa 0,0 l/m 0 min 0 min 30 W/m 37,7 km/h (5 Bft) 97,92 %
09.02.2016 16:04 8,9 C 8,3 C 6,7 C 94 % 15 lf 975,2 hPa 0,0 l/m 0 min 0 min 33 W/m 37,7 km/h (5 Bft) 97,87 %
09.02.2016 16:06 8,9 C 8,3 C 6,7 C 93 % 15 lf 975,1 hPa 0,0 l/m 0 min 0 min 46 W/m 37,7 km/h (5 Bft) 95,83 %
09.02.2016 16:08 8,9 C 8,3 C 6,7 C 92 % 15 lf 974,6 hPa 0,0 l/m 2 min 0 min 106 W/m 25,1 km/h (4 Bft) 95,74 %
09.02.2016 16:10 9,0 C 8,3 C 6,7 C 92 % 15 lf 974,4 hPa 0,0 l/m 2 min 0 min 144 W/m 25,1 km/h (4 Bft) 97,83 %
09.02.2016 16:12 9,0 C 8,3 C 6,7 C 91 % 15 lf 974,9 hPa 0,0 l/m 2 min 0 min 113 W/m 29,3 km/h (5 Bft) 94,44 %
09.02.2016 16:14 9,1 C 8,3 C 6,7 C 91 % 14 lf 974,9 hPa 0,0 l/m 2 min 0 min 136 W/m 33,5 km/h (5 Bft) 95,65 %
09.02.2016 16:16 9,1 C 8,9 C 7,2 C 90 % 12 lf 975,1 hPa 0,0 l/m 2 min 0 min 148 W/m 29,3 km/h (5 Bft) 100,00 %
09.02.2016 16:18 9,2 C 8,9 C 7,2 C 90 % 7 lf 975,0 hPa 0,0 l/m 2 min 0 min 156 W/m 25,1 km/h (4 Bft) 95,74 %
09.02.2016 16:20 9,2 C 8,9 C 6,7 C 90 % 3 lf 975,1 hPa 0,0 l/m 2 min 0 min 132 W/m 35,6 km/h (5 Bft) 97,87 %
09.02.2016 16:22 9,2 C 8,9 C 6,7 C 89 % 2 lf 975,2 hPa 0,0 l/m 2 min 0 min 95 W/m 23,0 km/h (4 Bft) 89,36 %
09.02.2016 16:24 9,3 C 8,3 C 6,7 C 89 % 0 lf 975,2 hPa 0,0 l/m 2 min 0 min 102 W/m 37,7 km/h (5 Bft) 93,48 %
09.02.2016 16:26 9,3 C 8,9 C 6,7 C 88 % 0 lf 975,2 hPa 0,0 l/m 2 min 0 min 90 W/m 35,6 km/h (5 Bft) 95,74 %
09.02.2016 16:28 9,3 C 8,3 C 6,7 C 88 % 0 lf 975,3 hPa 0,0 l/m 0 min 0 min 69 W/m 37,7 km/h (5 Bft) 93,62 %
09.02.2016 16:30 9,3 C 8,3 C 6,7 C 88 % 0 lf 975,3 hPa 0,0 l/m 0 min 0 min 64 W/m 43,9 km/h (6 Bft) 97,87 %
09.02.2016 16:32 9,4 C 8,3 C 6,7 C 87 % 0 lf 975,3 hPa 0,0 l/m 0 min 0 min 63 W/m 39,7 km/h (6 Bft) 95,74 %
09.02.2016 16:34 9,4 C 8,3 C 6,7 C 87 % 0 lf 975,4 hPa 0,0 l/m 0 min 0 min 41 W/m 43,9 km/h (6 Bft) 95,74 %
09.02.2016 16:36 9,4 C 8,3 C 6,7 C 86 % 0 lf 975,6 hPa 0,0 l/m 0 min 0 min 37 W/m 54,4 km/h (7 Bft) 93,48 %
09.02.2016 16:38 9,4 C 8,3 C 6,7 C 86 % 0 lf 975,7 hPa 0,0 l/m 0 min 2 min 31 W/m 37,7 km/h (5 Bft) 91,49 %
09.02.2016 16:40 9,4 C 8,3 C 6,7 C 86 % 0 lf 975,8 hPa 0,0 l/m 0 min 0 min 30 W/m 43,9 km/h (6 Bft) 91,49 %
09.02.2016 16:42 9,4 C 8,3 C 6,1 C 85 % 0 lf 975,9 hPa 0,0 l/m 0 min 0 min 19 W/m 54,4 km/h (7 Bft) 93,62 %
09.02.2016 16:44 9,3 C 7,8 C 6,1 C 85 % 0 lf 975,9 hPa 0,0 l/m 0 min 0 min 17 W/m 46,0 km/h (6 Bft) 95,74 %
09.02.2016 16:46 9,3 C 7,8 C 6,1 C 85 % 0 lf 976,0 hPa 0,0 l/m 0 min 0 min 17 W/m 60,7 km/h (7 Bft) 93,62 %
09.02.2016 16:48 9,2 C 7,8 C 6,1 C 85 % 0 lf 976,0 hPa 0,0 l/m 0 min 0 min 16 W/m 43,9 km/h (6 Bft) 93,48 %
09.02.2016 16:50 9,1 C 7,8 C 6,1 C 85 % 0 lf 976,1 hPa 0,0 l/m 0 min 2 min 17 W/m 48,1 km/h (6 Bft) 93,62 %
09.02.2016 16:52 8,9 C 7,8 C 6,1 C 86 % 3 lf 976,0 hPa 0,0 l/m 0 min 0 min 18 W/m 43,9 km/h (6 Bft) 91,49 %
09.02.2016 16:54 8,8 C 8,3 C 6,1 C 86 % 1 lf 976,1 hPa 0,0 l/m 0 min 2 min 21 W/m 35,6 km/h (5 Bft) 91,49 %
09.02.2016 16:56 8,7 C 8,3 C 5,6 C 86 % 0 lf 976,2 hPa 0,0 l/m 0 min 2 min 22 W/m 50,2 km/h (7 Bft) 93,62 %
09.02.2016 16:58 8,6 C 7,8 C 5,6 C 86 % 0 lf 976,2 hPa 0,0 l/m 0 min 0 min 18 W/m 46,0 km/h (6 Bft) 91,49 %
09.02.2016 17:00 8,4 C 7,8 C 5,6 C 86 % 0 lf 976,4 hPa 0,0 l/m 0 min 0 min 9 W/m 50,2 km/h (7 Bft) 95,65 %
09.02.2016 17:02 8,3 C 7,8 C 5,6 C 86 % 0 lf 976,5 hPa 0,0 l/m 0 min 0 min 7 W/m 52,3 km/h (7 Bft) 95,74 %
09.02.2016 17:04 8,2 C 7,8 C 5,6 C 87 % 0 lf 976,4 hPa 0,0 l/m 0 min 0 min 7 W/m 37,7 km/h (5 Bft) 93,62 %
09.02.2016 17:06 8,1 C 7,8 C 5,6 C 87 % 0 lf 976,5 hPa 0,0 l/m 0 min 0 min 6 W/m 41,8 km/h (6 Bft) 93,62 %
09.02.2016 17:08 7,9 C 7,2 C 5,0 C 87 % 0 lf 976,5 hPa 0,0 l/m 0 min 0 min 5 W/m 35,6 km/h (5 Bft) 95,74 %
09.02.2016 17:10 7,8 C 7,2 C 5,0 C 88 % 0 lf 976,7 hPa 0,0 l/m 0 min 0 min 5 W/m 48,1 km/h (6 Bft) 95,74 %
09.02.2016 17:12 7,7 C 7,2 C 5,0 C 88 % 0 lf 976,7 hPa 0,0 l/m 0 min 0 min 4 W/m 46,0 km/h (6 Bft) 93,48 %
09.02.2016 17:14 7,5 C 7,2 C 5,0 C 88 % 0 lf 976,9 hPa 0,0 l/m 0 min 0 min 0 W/m 54,4 km/h (7 Bft) 93,62 %
09.02.2016 17:16 7,4 C 6,7 C 5,0 C 88 % 0 lf 977,0 hPa 0,0 l/m 0 min 0 min 0 W/m 43,9 km/h (6 Bft) 91,49 %
09.02.2016 17:18 7,2 C 6,7 C 4,4 C 89 % 0 lf 977,2 hPa 0,0 l/m 0 min 0 min 0 W/m 37,7 km/h (5 Bft) 95,74 %
09.02.2016 17:20 7,1 C 6,1 C 4,4 C 89 % 1 lf 977,4 hPa 0,0 l/m 0 min 0 min 0 W/m 39,7 km/h (6 Bft) 95,74 %
09.02.2016 17:22 6,9 C 6,1 C 4,4 C 89 % 1 lf 977,6 hPa 0,0 l/m 0 min 0 min 0 W/m 31,4 km/h (5 Bft) 95,74 %
09.02.2016 17:24 6,7 C 5,6 C 3,9 C 89 % 2 lf 977,8 hPa 0,0 l/m 0 min 2 min 0 W/m 37,7 km/h (5 Bft) 91,30 %
09.02.2016 17:26 6,5 C 5,6 C 3,9 C 89 % 3 lf 977,9 hPa 0,0 l/m 0 min 0 min 0 W/m 43,9 km/h (6 Bft) 95,74 %
09.02.2016 17:28 6,2 C 5,0 C 3,3 C 89 % 3 lf 977,9 hPa 0,0 l/m 0 min 2 min 0 W/m 43,9 km/h (6 Bft) 93,62 %
09.02.2016 17:30 5,9 C 5,0 C 3,3 C 89 % 4 lf 978,1 hPa 0,0 l/m 0 min 0 min 0 W/m 27,2 km/h (4 Bft) 95,74 %
09.02.2016 17:32 5,8 C 4,4 C 3,3 C 89 % 9 lf 978,3 hPa 0,0 l/m 0 min 0 min 0 W/m 31,4 km/h (5 Bft) 93,62 %
09.02.2016 17:34 5,6 C 4,4 C 3,3 C 89 % 11 lf 978,4 hPa 0,0 l/m 0 min 0 min 0 W/m 41,8 km/h (6 Bft) 97,83 %
09.02.2016 17:36 5,4 C 4,4 C 3,3 C 89 % 14 lf 978,6 hPa 0,0 l/m 0 min 2 min 0 W/m 37,7 km/h (5 Bft) 97,87 %
09.02.2016 17:38 5,2 C 3,9 C 2,8 C 90 % 15 lf 978,7 hPa 0,0 l/m 0 min 2 min 0 W/m 31,4 km/h (5 Bft) 95,74 %
09.02.2016 17:40 5,1 C 3,9 C 2,8 C 90 % 15 lf 978,9 hPa 0,2 l/m 0 min 2 min 0 W/m 31,4 km/h (5 Bft) 95,74 %
09.02.2016 17:42 4,9 C 3,9 C 2,8 C 90 % 15 lf 979,3 hPa 0,0 l/m 0 min 2 min 0 W/m 37,7 km/h (5 Bft) 100,00 %
09.02.2016 17:44 4,8 C 3,9 C 2,8 C 90 % 15 lf 979,3 hPa 0,2 l/m 0 min 2 min 0 W/m 37,7 km/h (5 Bft) 100,00 %
09.02.2016 17:46 4,6 C 3,9 C 2,8 C 91 % 15 lf 979,5 hPa 0,0 l/m 0 min 2 min 0 W/m 29,3 km/h (5 Bft) 95,65 %
09.02.2016 17:48 4,5 C 3,3 C 2,8 C 91 % 15 lf 979,5 hPa 0,2 l/m 0 min 2 min 0 W/m 31,4 km/h (5 Bft) 97,87 %
09.02.2016 17:50 4,4 C 3,3 C 2,8 C 91 % 15 lf 979,5 hPa 0,0 l/m 0 min 2 min 0 W/m 33,5 km/h (5 Bft) 97,87 %
09.02.2016 17:52 4,3 C 3,3 C 2,2 C 91 % 15 lf 979,6 hPa 0,0 l/m 0 min 2 min 0 W/m 29,3 km/h (5 Bft) 97,87 %
09.02.2016 17:54 4,2 C 3,3 C 2,2 C 92 % 15 lf 979,6 hPa 0,2 l/m 0 min 2 min 0 W/m 31,4 km/h (5 Bft) 97,87 %
09.02.2016 17:56 4,1 C 3,3 C 2,2 C 92 % 15 lf 979,7 hPa 0,0 l/m 0 min 2 min 0 W/m 39,7 km/h (6 Bft) 95,74 %
09.02.2016 17:58 4,0 C 3,3 C 2,2 C 92 % 15 lf 979,7 hPa 0,0 l/m 0 min 2 min 0 W/m 35,6 km/h (5 Bft) 100,00 %
09.02.2016 18:00 3,9 C 3,3 C 2,2 C 92 % 15 lf 979,8 hPa 0,0 l/m 0 min 2 min 0 W/m 37,7 km/h (5 Bft) 97,87 %
09.02.2016 18:02 3,8 C 3,3 C 2,2 C 92 % 15 lf 979,9 hPa 0,0 l/m 0 min 2 min 0 W/m 33,5 km/h (5 Bft) 95,74 %
09.02.2016 18:04 3,7 C 3,3 C 2,2 C 92 % 15 lf 980,0 hPa 0,0 l/m 0 min 2 min 0 W/m 23,0 km/h (4 Bft) 96,23 %
09.02.2016 18:06 3,7 C 2,8 C 2,2 C 92 % 15 lf 980,2 hPa 0,2 l/m 0 min 2 min 0 W/m 37,7 km/h (5 Bft) 98,00 %
09.02.2016 18:08 3,6 C 2,8 C 2,2 C 92 % 15 lf 980,2 hPa 0,0 l/m 0 min 2 min 0 W/m 37,7 km/h (5 Bft) 95,65 %
09.02.2016 18:10 3,5 C 2,8 C 2,2 C 92 % 15 lf 980,3 hPa 0,0 l/m 0 min 2 min 0 W/m 39,7 km/h (6 Bft) 97,87 %
09.02.2016 18:12 3,4 C 2,8 C 2,2 C 93 % 15 lf 980,3 hPa 0,0 l/m 0 min 2 min 0 W/m 25,1 km/h (4 Bft) 95,74 %
09.02.2016 18:14 3,4 C 2,8 C 2,2 C 93 % 15 lf 980,5 hPa 0,2 l/m 0 min 2 min 0 W/m 33,5 km/h (5 Bft) 100,00 %
09.02.2016 18:16 3,4 C 2,8 C 2,2 C 93 % 15 lf 980,5 hPa 0,0 l/m 0 min 2 min 0 W/m 23,0 km/h (4 Bft) 97,87 %
09.02.2016 18:18 3,3 C 2,8 C 2,2 C 93 % 15 lf 980,6 hPa 0,0 l/m 0 min 2 min 0 W/m 25,1 km/h (4 Bft) 97,87 %
09.02.2016 18:20 3,3 C 2,8 C 2,2 C 93 % 15 lf 980,7 hPa 0,0 l/m 0 min 2 min 0 W/m 29,3 km/h (5 Bft) 95,65 %
09.02.2016 18:22 3,3 C 2,8 C 1,7 C 93 % 15 lf 980,8 hPa 0,0 l/m 0 min 2 min 0 W/m 33,5 km/h (5 Bft) 95,74 %
09.02.2016 18:24 3,2 C 2,8 C 2,2 C 93 % 15 lf 981,1 hPa 0,0 l/m 0 min 2 min 0 W/m 23,0 km/h (4 Bft) 97,87 %
09.02.2016 18:26 3,2 C 2,8 C 1,7 C 93 % 15 lf 981,1 hPa 0,0 l/m 0 min 2 min 0 W/m 41,8 km/h (6 Bft) 97,87 %
09.02.2016 18:28 3,2 C 2,8 C 1,7 C 93 % 15 lf 981,3 hPa 0,0 l/m 0 min 2 min 0 W/m 29,3 km/h (5 Bft) 95,74 %
09.02.2016 18:30 3,2 C 2,8 C 1,7 C 93 % 15 lf 981,3 hPa 0,0 l/m 0 min 2 min 0 W/m 29,3 km/h (5 Bft) 93,48 %
09.02.2016 18:32 3,2 C 2,8 C 1,7 C 94 % 15 lf 981,4 hPa 0,0 l/m 0 min 2 min 0 W/m 29,3 km/h (5 Bft) 97,87 %
09.02.2016 18:34 3,1 C 2,8 C 1,7 C 94 % 15 lf 981,6 hPa 0,0 l/m 0 min 2 min 0 W/m 29,3 km/h (5 Bft) 95,74 %
09.02.2016 18:36 3,1 C 2,8 C 1,7 C 94 % 15 lf 981,6 hPa 0,2 l/m 0 min 2 min 0 W/m 29,3 km/h (5 Bft) 100,00 %
09.02.2016 18:38 3,1 C 2,8 C 1,7 C 94 % 15 lf 981,8 hPa 0,0 l/m 0 min 2 min 0 W/m 35,6 km/h (5 Bft) 97,87 %
09.02.2016 18:40 3,0 C 2,8 C 1,7 C 94 % 15 lf 981,8 hPa 0,0 l/m 0 min 2 min 0 W/m 33,5 km/h (5 Bft) 97,87 %
09.02.2016 18:42 3,0 C 2,8 C 1,7 C 94 % 15 lf 982,0 hPa 0,0 l/m 0 min 2 min 0 W/m 29,3 km/h (5 Bft) 95,74 %
09.02.2016 18:44 2,9 C 2,8 C 1,7 C 94 % 15 lf 982,2 hPa 0,0 l/m 0 min 2 min 0 W/m 35,6 km/h (5 Bft) 95,74 %
09.02.2016 18:46 2,9 C 2,8 C 1,7 C 94 % 15 lf 982,2 hPa 0,0 l/m 0 min 2 min 0 W/m 33,5 km/h (5 Bft) 95,65 %
09.02.2016 18:48 2,9 C 2,8 C 1,7 C 94 % 15 lf 982,3 hPa 0,0 l/m 0 min 2 min 0 W/m 33,5 km/h (5 Bft) 97,87 %
09.02.2016 18:50 2,9 C 2,8 C 1,7 C 94 % 15 lf 982,4 hPa 0,0 l/m 0 min 2 min 0 W/m 33,5 km/h (5 Bft) 97,87 %
09.02.2016 18:52 2,8 C 2,2 C 1,7 C 94 % 15 lf 982,4 hPa 0,0 l/m 0 min 2 min 0 W/m 35,6 km/h (5 Bft) 97,87 %
09.02.2016 18:54 2,8 C 2,2 C 1,7 C 94 % 15 lf 982,5 hPa 0,2 l/m 0 min 2 min 0 W/m 35,6 km/h (5 Bft) 95,74 %
09.02.2016 18:56 2,8 C 2,2 C 1,7 C 94 % 15 lf 982,6 hPa 0,0 l/m 0 min 2 min 0 W/m 29,3 km/h (5 Bft) 93,48 %
09.02.2016 18:58 2,7 C 2,2 C 1,7 C 94 % 15 lf 982,7 hPa 0,0 l/m 0 min 2 min 0 W/m 27,2 km/h (4 Bft) 97,87 %
09.02.2016 19:00 2,7 C 2,2 C 1,7 C 94 % 15 lf 982,8 hPa 0,0 l/m 0 min 2 min 0 W/m 25,1 km/h (4 Bft) 95,74 %
09.02.2016 19:02 2,6 C 2,2 C 1,1 C 94 % 15 lf 982,8 hPa 0,0 l/m 0 min 2 min 0 W/m 35,6 km/h (5 Bft) 95,74 %
09.02.2016 19:04 2,6 C 2,2 C 1,1 C 94 % 15 lf 982,9 hPa 0,0 l/m 0 min 2 min 0 W/m 27,2 km/h (4 Bft) 97,87 %
09.02.2016 19:06 2,5 C 2,2 C 1,1 C 94 % 15 lf 983,0 hPa 0,2 l/m 0 min 2 min 0 W/m 25,1 km/h (4 Bft) 95,74 %
09.02.2016 19:08 2,4 C 2,2 C 1,1 C 94 % 15 lf 983,1 hPa 0,0 l/m 0 min 2 min 0 W/m 31,4 km/h (5 Bft) 95,65 %
09.02.2016 19:10 2,4 C 2,2 C 1,1 C 94 % 15 lf 983,2 hPa 0,0 l/m 0 min 2 min 0 W/m 33,5 km/h (5 Bft) 97,87 %
09.02.2016 19:12 2,4 C 2,2 C 1,1 C 94 % 15 lf 983,3 hPa 0,0 l/m 0 min 2 min 0 W/m 27,2 km/h (4 Bft) 93,62 %
09.02.2016 19:14 2,3 C 2,2 C 1,1 C 94 % 15 lf 983,4 hPa 0,2 l/m 0 min 2 min 0 W/m 37,7 km/h (5 Bft) 96,23 %
09.02.2016 19:16 2,3 C 2,2 C 1,1 C 94 % 15 lf 983,5 hPa 0,0 l/m 0 min 2 min 0 W/m 29,3 km/h (5 Bft) 95,12 %
09.02.2016 19:18 2,3 C 2,2 C 1,1 C 95 % 15 lf 983,6 hPa 0,0 l/m 0 min 2 min 0 W/m 29,3 km/h (5 Bft) 95,74 %
09.02.2016 19:20 2,2 C 1,7 C 1,1 C 95 % 15 lf 983,6 hPa 0,0 l/m 0 min 2 min 0 W/m 35,6 km/h (5 Bft) 94,44 %
09.02.2016 19:22 2,2 C 1,7 C 1,1 C 95 % 15 lf 983,7 hPa 0,2 l/m 0 min 2 min 0 W/m 27,2 km/h (4 Bft) 95,74 %
09.02.2016 19:24 2,2 C 1,7 C 1,1 C 95 % 15 lf 983,8 hPa 0,0 l/m 0 min 2 min 0 W/m 35,6 km/h (5 Bft) 95,74 %
09.02.2016 19:26 2,1 C 1,7 C 0,6 C 95 % 15 lf 983,9 hPa 0,0 l/m 0 min 2 min 0 W/m 29,3 km/h (5 Bft) 91,49 %
09.02.2016 19:28 2,1 C 1,7 C 0,6 C 95 % 15 lf 983,9 hPa 0,2 l/m 0 min 2 min 0 W/m 27,2 km/h (4 Bft) 95,74 %
09.02.2016 19:30 2,0 C 1,7 C 0,6 C 95 % 15 lf 984,1 hPa 0,0 l/m 0 min 2 min 0 W/m 29,3 km/h (5 Bft) 97,83 %
09.02.2016 19:32 1,9 C 1,7 C 0,6 C 95 % 15 lf 984,1 hPa 0,0 l/m 0 min 2 min 0 W/m 25,1 km/h (4 Bft) 95,74 %
09.02.2016 19:34 1,9 C 1,7 C 0,6 C 95 % 15 lf 984,3 hPa 0,0 l/m 0 min 2 min 0 W/m 23,0 km/h (4 Bft) 95,74 %
09.02.2016 19:36 1,9 C 1,7 C 0,6 C 95 % 15 lf 984,3 hPa 0,0 l/m 0 min 2 min 0 W/m 35,6 km/h (5 Bft) 95,74 %
09.02.2016 19:38 1,9 C 1,7 C 0,6 C 95 % 15 lf 984,4 hPa 0,0 l/m 0 min 2 min 0 W/m 31,4 km/h (5 Bft) 97,87 %
09.02.2016 19:40 1,8 C 1,7 C 0,6 C 95 % 15 lf 984,5 hPa 0,0 l/m 0 min 2 min 0 W/m 23,0 km/h (4 Bft) 95,74 %
09.02.2016 19:42 1,8 C 1,7 C 0,6 C 95 % 15 lf 984,4 hPa 0,0 l/m 0 min 2 min 0 W/m 20,9 km/h (4 Bft) 93,48 %
09.02.2016 19:44 1,8 C 1,7 C 1,1 C 95 % 15 lf 984,5 hPa 0,0 l/m 0 min 2 min 0 W/m 39,7 km/h (6 Bft) 95,74 %
09.02.2016 19:46 1,8 C 1,7 C 1,1 C 95 % 15 lf 984,6 hPa 0,0 l/m 0 min 2 min 0 W/m 20,9 km/h (4 Bft) 97,87 %
09.02.2016 19:48 1,8 C 1,7 C 1,1 C 95 % 15 lf 984,5 hPa 0,0 l/m 0 min 2 min 0 W/m 29,3 km/h (5 Bft) 97,87 %
09.02.2016 19:50 1,8 C 1,7 C 1,1 C 95 % 15 lf 984,6 hPa 0,0 l/m 0 min 0 min 0 W/m 29,3 km/h (5 Bft) 95,74 %
09.02.2016 19:52 1,8 C 1,7 C 1,1 C 95 % 15 lf 984,6 hPa 0,0 l/m 0 min 0 min 0 W/m 33,5 km/h (5 Bft) 95,65 %
09.02.2016 19:54 1,8 C 1,7 C 1,1 C 95 % 15 lf 984,6 hPa 0,0 l/m 0 min 0 min 0 W/m 31,4 km/h (5 Bft) 95,74 %
09.02.2016 19:56 1,9 C 2,2 C 1,1 C 95 % 15 lf 984,7 hPa 0,0 l/m 0 min 0 min 0 W/m 33,5 km/h (5 Bft) 95,74 %
09.02.2016 19:58 1,9 C 2,2 C 1,1 C 95 % 15 lf 984,8 hPa 0,0 l/m 0 min 0 min 0 W/m 33,5 km/h (5 Bft) 97,87 %
09.02.2016 20:00 2,0 C 2,2 C 1,1 C 95 % 15 lf 984,8 hPa 0,0 l/m 0 min 0 min 0 W/m 33,5 km/h (5 Bft) 95,74 %
09.02.2016 20:02 2,1 C 2,2 C 1,1 C 95 % 15 lf 984,8 hPa 0,0 l/m 0 min 0 min 0 W/m 29,3 km/h (5 Bft) 91,49 %
09.02.2016 20:04 2,1 C 2,2 C 1,1 C 96 % 15 lf 984,9 hPa 0,0 l/m 0 min 0 min 0 W/m 31,4 km/h (5 Bft) 95,65 %
09.02.2016 20:06 2,2 C 2,2 C 1,7 C 96 % 15 lf 984,9 hPa 0,0 l/m 0 min 0 min 0 W/m 23,0 km/h (4 Bft) 95,74 %
09.02.2016 20:08 2,2 C 2,8 C 1,7 C 96 % 15 lf 985,0 hPa 0,0 l/m 0 min 2 min 0 W/m 27,2 km/h (4 Bft) 97,87 %
09.02.2016 20:10 2,3 C 2,8 C 1,7 C 96 % 15 lf 985,1 hPa 0,0 l/m 0 min 2 min 0 W/m 25,1 km/h (4 Bft) 97,87 %
09.02.2016 20:12 2,4 C 2,8 C 1,7 C 96 % 15 lf 985,2 hPa 0,2 l/m 0 min 2 min 0 W/m 27,2 km/h (4 Bft) 95,74 %
09.02.2016 20:14 2,4 C 2,8 C 1,7 C 96 % 15 lf 985,2 hPa 0,0 l/m 0 min 2 min 0 W/m 27,2 km/h (4 Bft) 97,87 %
09.02.2016 20:16 2,5 C 2,8 C 1,7 C 96 % 15 lf 985,3 hPa 0,2 l/m 0 min 2 min 0 W/m 20,9 km/h (4 Bft) 97,83 %
09.02.2016 20:18 2,5 C 2,8 C 1,7 C 96 % 15 lf 985,4 hPa 0,0 l/m 0 min 2 min 0 W/m 14,6 km/h (3 Bft) 97,87 %
09.02.2016 20:20 2,6 C 2,8 C 1,7 C 96 % 15 lf 985,4 hPa 0,0 l/m 0 min 0 min 0 W/m 31,4 km/h (5 Bft) 97,87 %
09.02.2016 20:22 2,6 C 2,8 C 1,7 C 96 % 15 lf 985,4 hPa 0,0 l/m 0 min 0 min 0 W/m 23,0 km/h (4 Bft) 97,92 %
09.02.2016 20:24 2,7 C 2,8 C 1,7 C 96 % 15 lf 985,5 hPa 0,0 l/m 0 min 0 min 0 W/m 27,2 km/h (4 Bft) 97,87 %
09.02.2016 20:26 2,7 C 2,8 C 1,7 C 96 % 15 lf 985,6 hPa 0,0 l/m 0 min 0 min 0 W/m 25,1 km/h (4 Bft) 97,87 %
09.02.2016 20:28 2,8 C 2,8 C 2,2 C 96 % 15 lf 985,6 hPa 0,0 l/m 0 min 0 min 0 W/m 27,2 km/h (4 Bft) 95,65 %
09.02.2016 20:30 2,8 C 3,3 C 2,2 C 96 % 15 lf 985,6 hPa 0,0 l/m 0 min 0 min 0 W/m 23,0 km/h (4 Bft) 97,87 %
09.02.2016 20:32 2,9 C 3,3 C 2,2 C 96 % 15 lf 985,6 hPa 0,0 l/m 0 min 0 min 0 W/m 33,5 km/h (5 Bft) 95,74 %
09.02.2016 20:34 2,9 C 3,3 C 2,2 C 96 % 15 lf 985,7 hPa 0,0 l/m 0 min 0 min 0 W/m 33,5 km/h (5 Bft) 100,00 %
09.02.2016 20:36 3,0 C 3,3 C 2,2 C 96 % 15 lf 985,8 hPa 0,0 l/m 0 min 0 min 0 W/m 29,3 km/h (5 Bft) 97,37 %
09.02.2016 20:38 3,1 C 3,3 C 2,2 C 96 % 15 lf 985,8 hPa 0,0 l/m 0 min 0 min 0 W/m 23,0 km/h (4 Bft) 97,87 %
09.02.2016 20:40 3,1 C 3,3 C 2,2 C 96 % 15 lf 985,9 hPa 0,0 l/m 0 min 0 min 0 W/m 33,5 km/h (5 Bft) 97,87 %
09.02.2016 20:42 3,1 C 3,3 C 2,2 C 96 % 15 lf 985,8 hPa 0,0 l/m 0 min 0 min 0 W/m 27,2 km/h (4 Bft) 97,83 %
09.02.2016 20:44 3,2 C 3,3 C 2,2 C 96 % 15 lf 985,9 hPa 0,0 l/m 0 min 0 min 0 W/m 31,4 km/h (5 Bft) 100,00 %
09.02.2016 20:46 3,2 C 3,3 C 2,2 C 96 % 15 lf 986,0 hPa 0,0 l/m 0 min 0 min 0 W/m 31,4 km/h (5 Bft) 100,00 %
09.02.2016 20:48 3,2 C 3,3 C 2,2 C 96 % 15 lf 986,0 hPa 0,0 l/m 0 min 0 min 0 W/m 29,3 km/h (5 Bft) 100,00 %
09.02.2016 20:50 3,2 C 3,3 C 2,2 C 96 % 15 lf 986,0 hPa 0,0 l/m 0 min 0 min 0 W/m 29,3 km/h (5 Bft) 97,87 %
09.02.2016 20:52 3,3 C 3,3 C 2,2 C 96 % 15 lf 986,0 hPa 0,0 l/m 0 min 0 min 0 W/m 37,7 km/h (5 Bft) 97,87 %
09.02.2016 20:54 3,3 C 3,3 C 2,2 C 96 % 15 lf 986,1 hPa 0,0 l/m 0 min 0 min 0 W/m 25,1 km/h (4 Bft) 97,83 %
09.02.2016 20:56 3,3 C 3,3 C 2,2 C 97 % 15 lf 986,1 hPa 0,0 l/m 0 min 0 min 0 W/m 25,1 km/h (4 Bft) 97,87 %
09.02.2016 20:58 3,3 C 3,3 C 2,2 C 97 % 15 lf 986,2 hPa 0,0 l/m 0 min 0 min 0 W/m 35,6 km/h (5 Bft) 97,87 %
09.02.2016 21:00 3,3 C 3,3 C 2,2 C 97 % 15 lf 986,2 hPa 0,0 l/m 0 min 0 min 0 W/m 35,6 km/h (5 Bft) 97,87 %
09.02.2016 21:02 3,3 C 3,3 C 2,2 C 97 % 15 lf 986,3 hPa 0,0 l/m 0 min 0 min 0 W/m 43,9 km/h (6 Bft) 97,87 %
09.02.2016 21:04 3,3 C 3,3 C 2,2 C 97 % 15 lf 986,3 hPa 0,0 l/m 0 min 0 min 0 W/m 31,4 km/h (5 Bft) 95,65 %
09.02.2016 21:06 3,3 C 3,3 C 2,2 C 97 % 15 lf 986,3 hPa 0,0 l/m 0 min 0 min 0 W/m 37,7 km/h (5 Bft) 93,62 %
09.02.2016 21:08 3,3 C 3,3 C 2,2 C 97 % 15 lf 986,4 hPa 0,0 l/m 0 min 0 min 0 W/m 29,3 km/h (5 Bft) 97,87 %
09.02.2016 21:10 3,3 C 3,3 C 2,2 C 97 % 15 lf 986,3 hPa 0,0 l/m 0 min 0 min 0 W/m 37,7 km/h (5 Bft) 95,74 %
09.02.2016 21:12 3,3 C 3,3 C 2,2 C 97 % 15 lf 986,4 hPa 0,0 l/m 0 min 0 min 0 W/m 33,5 km/h (5 Bft) 95,74 %
09.02.2016 21:14 3,3 C 3,3 C 2,2 C 97 % 15 lf 986,4 hPa 0,0 l/m 0 min 0 min 0 W/m 31,4 km/h (5 Bft) 97,87 %
09.02.2016 21:16 3,3 C 3,3 C 2,2 C 97 % 15 lf 986,5 hPa 0,0 l/m 0 min 0 min 0 W/m 46,0 km/h (6 Bft) 97,83 %
09.02.2016 21:18 3,4 C 3,3 C 2,2 C 97 % 15 lf 986,5 hPa 0,0 l/m 0 min 0 min 0 W/m 29,3 km/h (5 Bft) 97,87 %
09.02.2016 21:20 3,4 C 3,3 C 2,2 C 97 % 15 lf 986,7 hPa 0,0 l/m 0 min 0 min 0 W/m 37,7 km/h (5 Bft) 97,87 %
09.02.2016 21:22 3,4 C 3,3 C 2,2 C 97 % 15 lf 986,7 hPa 0,0 l/m 0 min 0 min 0 W/m 33,5 km/h (5 Bft) 97,87 %
09.02.2016 21:24 3,4 C 3,3 C 2,2 C 97 % 15 lf 986,8 hPa 0,0 l/m 0 min 0 min 0 W/m 31,4 km/h (5 Bft) 97,87 %
09.02.2016 21:26 3,4 C 3,3 C 2,2 C 97 % 15 lf 986,8 hPa 0,0 l/m 0 min 0 min 0 W/m 33,5 km/h (5 Bft) 97,87 %
09.02.2016 21:28 3,4 C 3,3 C 2,2 C 97 % 15 lf 986,8 hPa 0,0 l/m 0 min 0 min 0 W/m 37,7 km/h (5 Bft) 93,48 %
09.02.2016 21:30 3,5 C 3,3 C 2,2 C 97 % 15 lf 986,8 hPa 0,0 l/m 0 min 0 min 0 W/m 25,1 km/h (4 Bft) 97,87 %
09.02.2016 21:32 3,5 C 3,3 C 2,2 C 97 % 15 lf 986,9 hPa 0,0 l/m 0 min 0 min 0 W/m 27,2 km/h (4 Bft) 93,62 %
09.02.2016 21:34 3,5 C 3,3 C 2,2 C 97 % 15 lf 986,9 hPa 0,0 l/m 0 min 0 min 0 W/m 27,2 km/h (4 Bft) 97,87 %
09.02.2016 21:36 3,6 C 3,3 C 2,2 C 97 % 15 lf 987,0 hPa 0,0 l/m 0 min 0 min 0 W/m 27,2 km/h (4 Bft) 95,74 %
09.02.2016 21:38 3,6 C 3,3 C 2,2 C 97 % 15 lf 986,9 hPa 0,0 l/m 0 min 0 min 0 W/m 31,4 km/h (5 Bft) 97,87 %
09.02.2016 21:40 3,6 C 3,3 C 2,2 C 97 % 15 lf 987,0 hPa 0,0 l/m 0 min 0 min 0 W/m 35,6 km/h (5 Bft) 95,65 %
09.02.2016 21:42 3,6 C 3,3 C 2,2 C 97 % 15 lf 987,0 hPa 0,0 l/m 0 min 0 min 0 W/m 39,7 km/h (6 Bft) 94,34 %
09.02.2016 21:44 3,6 C 3,3 C 2,2 C 97 % 15 lf 987,1 hPa 0,0 l/m 0 min 0 min 0 W/m 39,7 km/h (6 Bft) 91,49 %
09.02.2016 21:46 3,6 C 3,3 C 2,2 C 97 % 15 lf 987,1 hPa 0,0 l/m 0 min 0 min 0 W/m 31,4 km/h (5 Bft) 95,12 %
09.02.2016 21:48 3,6 C 3,3 C 2,2 C 97 % 15 lf 987,1 hPa 0,0 l/m 0 min 0 min 0 W/m 27,2 km/h (4 Bft) 93,62 %
09.02.2016 21:50 3,6 C 3,3 C 2,2 C 97 % 15 lf 987,2 hPa 0,0 l/m 0 min 0 min 0 W/m 31,4 km/h (5 Bft) 92,31 %
09.02.2016 21:52 3,6 C 3,3 C 2,2 C 97 % 15 lf 987,2 hPa 0,0 l/m 0 min 0 min 0 W/m 29,3 km/h (5 Bft) 85,11 %
09.02.2016 21:54 3,6 C 3,3 C 2,2 C 97 % 15 lf 987,3 hPa 0,0 l/m 0 min 0 min 0 W/m 29,3 km/h (5 Bft) 89,36 %
09.02.2016 21:56 3,6 C 3,3 C 2,2 C 97 % 15 lf 987,3 hPa 0,0 l/m 0 min 0 min 0 W/m 29,3 km/h (5 Bft) 89,36 %
09.02.2016 21:58 3,6 C 3,3 C 2,2 C 97 % 15 lf 987,3 hPa 0,0 l/m 0 min 0 min 0 W/m 33,5 km/h (5 Bft) 91,49 %
09.02.2016 22:00 3,6 C 3,3 C 2,2 C 97 % 15 lf 987,4 hPa 0,0 l/m 0 min 0 min 0 W/m 29,3 km/h (5 Bft) 80,49 %
09.02.2016 22:02 3,6 C 3,3 C 2,2 C 97 % 15 lf 987,4 hPa 0,0 l/m 0 min 0 min 0 W/m 31,4 km/h (5 Bft) 91,49 %
09.02.2016 22:04 3,6 C 3,3 C 2,2 C 96 % 15 lf 987,5 hPa 0,0 l/m 0 min 0 min 0 W/m 33,5 km/h (5 Bft) 94,23 %
09.02.2016 22:06 3,6 C 3,3 C 2,2 C 96 % 15 lf 987,4 hPa 0,0 l/m 0 min 0 min 0 W/m 33,5 km/h (5 Bft) 91,49 %
09.02.2016 22:08 3,7 C 3,3 C 2,2 C 96 % 15 lf 987,6 hPa 0,0 l/m 0 min 0 min 0 W/m 35,6 km/h (5 Bft) 93,62 %
09.02.2016 22:10 3,7 C 3,3 C 2,2 C 96 % 15 lf 987,6 hPa 0,0 l/m 0 min 0 min 0 W/m 29,3 km/h (5 Bft) 93,62 %
09.02.2016 22:12 3,7 C 3,3 C 2,2 C 96 % 15 lf 987,6 hPa 0,0 l/m 0 min 0 min 0 W/m 23,0 km/h (4 Bft) 87,80 %
09.02.2016 22:14 3,7 C 3,3 C 2,2 C 96 % 15 lf 987,7 hPa 0,0 l/m 0 min 0 min 0 W/m 33,5 km/h (5 Bft) 91,49 %
09.02.2016 22:16 3,7 C 3,3 C 2,2 C 96 % 15 lf 987,7 hPa 0,0 l/m 0 min 0 min 0 W/m 27,2 km/h (4 Bft) 95,65 %
09.02.2016 22:18 3,7 C 3,3 C 2,2 C 96 % 15 lf 987,8 hPa 0,0 l/m 0 min 0 min 0 W/m 31,4 km/h (5 Bft) 91,49 %
09.02.2016 22:20 3,7 C 3,3 C 2,2 C 96 % 15 lf 987,8 hPa 0,0 l/m 0 min 0 min 0 W/m 27,2 km/h (4 Bft) 90,91 %
09.02.2016 22:22 3,6 C 3,3 C 2,2 C 96 % 15 lf 987,9 hPa 0,0 l/m 0 min 0 min 0 W/m 39,7 km/h (6 Bft) 93,62 %
09.02.2016 22:24 3,7 C 3,3 C 2,2 C 96 % 15 lf 988,0 hPa 0,0 l/m 0 min 0 min 0 W/m 39,7 km/h (6 Bft) 93,48 %
09.02.2016 22:26 3,7 C 3,3 C 2,2 C 96 % 15 lf 987,9 hPa 0,0 l/m 0 min 0 min 0 W/m 29,3 km/h (5 Bft) 95,74 %
09.02.2016 22:28 3,7 C 3,3 C 2,2 C 96 % 15 lf 987,9 hPa 0,0 l/m 0 min 0 min 0 W/m 29,3 km/h (5 Bft) 93,62 %
09.02.2016 22:30 3,7 C 3,3 C 2,2 C 96 % 15 lf 988,1 hPa 0,0 l/m 0 min 0 min 0 W/m 31,4 km/h (5 Bft) 95,74 %
09.02.2016 22:32 3,7 C 3,3 C 2,2 C 96 % 15 lf 988,0 hPa 0,0 l/m 0 min 0 min 0 W/m 33,5 km/h (5 Bft) 95,74 %
09.02.2016 22:34 3,7 C 3,3 C 2,2 C 96 % 15 lf 988,0 hPa 0,0 l/m 0 min 0 min 0 W/m 29,3 km/h (5 Bft) 91,49 %
09.02.2016 22:36 3,7 C 3,3 C 2,2 C 96 % 15 lf 988,1 hPa 0,0 l/m 0 min 0 min 0 W/m 31,4 km/h (5 Bft) 93,88 %
09.02.2016 22:38 3,7 C 3,3 C 2,2 C 96 % 15 lf 988,2 hPa 0,0 l/m 0 min 0 min 0 W/m 29,3 km/h (5 Bft) 100,00 %
09.02.2016 22:40 3,7 C 3,3 C 2,2 C 96 % 15 lf 988,2 hPa 0,0 l/m 0 min 0 min 0 W/m 20,9 km/h (4 Bft) 97,87 %
09.02.2016 22:42 3,7 C 3,3 C 2,2 C 96 % 15 lf 988,2 hPa 0,0 l/m 0 min 0 min 0 W/m 27,2 km/h (4 Bft) 97,87 %
09.02.2016 22:44 3,7 C 3,3 C 2,2 C 96 % 15 lf 988,3 hPa 0,0 l/m 0 min 0 min 0 W/m 27,2 km/h (4 Bft) 95,74 %
09.02.2016 22:46 3,7 C 3,3 C 2,2 C 96 % 15 lf 988,3 hPa 0,0 l/m 0 min 0 min 0 W/m 29,3 km/h (5 Bft) 100,00 %
09.02.2016 22:48 3,7 C 3,3 C 2,2 C 96 % 15 lf 988,4 hPa 0,0 l/m 0 min 0 min 0 W/m 29,3 km/h (5 Bft) 100,00 %
09.02.2016 22:50 3,7 C 3,3 C 2,2 C 96 % 15 lf 988,4 hPa 0,0 l/m 0 min 0 min 0 W/m 31,4 km/h (5 Bft) 100,00 %
09.02.2016 22:52 3,7 C 3,3 C 2,2 C 96 % 15 lf 988,4 hPa 0,0 l/m 0 min 0 min 0 W/m 27,2 km/h (4 Bft) 88,89 %
09.02.2016 22:54 3,7 C 3,3 C 2,2 C 96 % 15 lf 988,4 hPa 0,0 l/m 0 min 0 min 0 W/m 23,0 km/h (4 Bft) 97,87 %
09.02.2016 22:56 3,7 C 3,3 C 2,2 C 96 % 15 lf 988,4 hPa 0,0 l/m 0 min 0 min 0 W/m 27,2 km/h (4 Bft) 97,87 %
09.02.2016 22:58 3,7 C 3,3 C 2,2 C 96 % 15 lf 988,5 hPa 0,0 l/m 0 min 0 min 0 W/m 25,1 km/h (4 Bft) 100,00 %
09.02.2016 23:00 3,6 C 3,3 C 2,2 C 96 % 15 lf 988,6 hPa 0,0 l/m 0 min 0 min 0 W/m 29,3 km/h (5 Bft) 97,87 %
09.02.2016 23:02 3,6 C 3,3 C 1,7 C 96 % 15 lf 988,7 hPa 0,0 l/m 0 min 0 min 0 W/m 25,1 km/h (4 Bft) 95,65 %
09.02.2016 23:04 3,6 C 3,3 C 1,7 C 96 % 14 lf 988,7 hPa 0,0 l/m 0 min 0 min 0 W/m 27,2 km/h (4 Bft) 95,74 %
09.02.2016 23:06 3,6 C 3,3 C 2,2 C 96 % 15 lf 988,7 hPa 0,0 l/m 0 min 0 min 0 W/m 33,5 km/h (5 Bft) 100,00 %
09.02.2016 23:08 3,6 C 3,3 C 1,7 C 96 % 15 lf 988,6 hPa 0,0 l/m 0 min 0 min 0 W/m 18,8 km/h (3 Bft) 97,87 %
09.02.2016 23:10 3,6 C 3,3 C 1,7 C 96 % 14 lf 988,7 hPa 0,0 l/m 0 min 0 min 0 W/m 29,3 km/h (5 Bft) 97,87 %
09.02.2016 23:12 3,6 C 3,3 C 1,7 C 96 % 15 lf 988,7 hPa 0,0 l/m 0 min 0 min 0 W/m 27,2 km/h (4 Bft) 97,87 %
09.02.2016 23:14 3,6 C 3,3 C 1,7 C 96 % 14 lf 988,7 hPa 0,0 l/m 0 min 0 min 0 W/m 27,2 km/h (4 Bft) 100,00 %
09.02.2016 23:16 3,6 C 3,3 C 1,7 C 96 % 14 lf 988,7 hPa 0,0 l/m 0 min 0 min 0 W/m 25,1 km/h (4 Bft) 100,00 %
09.02.2016 23:18 3,5 C 2,8 C 1,7 C 95 % 15 lf 988,7 hPa 0,0 l/m 0 min 0 min 0 W/m 16,7 km/h (3 Bft) 95,74 %
09.02.2016 23:20 3,5 C 2,8 C 1,7 C 95 % 15 lf 988,8 hPa 0,0 l/m 0 min 0 min 0 W/m 20,9 km/h (4 Bft) 97,87 %
09.02.2016 23:22 3,5 C 2,8 C 1,7 C 95 % 15 lf 988,8 hPa 0,0 l/m 0 min 0 min 0 W/m 23,0 km/h (4 Bft) 100,00 %
09.02.2016 23:24 3,5 C 3,3 C 1,7 C 95 % 14 lf 988,8 hPa 0,0 l/m 0 min 0 min 0 W/m 20,9 km/h (4 Bft) 100,00 %
09.02.2016 23:26 3,4 C 3,3 C 1,7 C 95 % 14 lf 988,8 hPa 0,0 l/m 0 min 0 min 0 W/m 23,0 km/h (4 Bft) 93,62 %
09.02.2016 23:28 3,4 C 3,3 C 1,7 C 95 % 15 lf 988,9 hPa 0,0 l/m 0 min 0 min 0 W/m 27,2 km/h (4 Bft) 100,00 %
09.02.2016 23:30 3,4 C 2,8 C 1,7 C 95 % 14 lf 988,9 hPa 0,0 l/m 0 min 0 min 0 W/m 20,9 km/h (4 Bft) 100,00 %
09.02.2016 23:32 3,4 C 2,8 C 1,7 C 95 % 15 lf 989,0 hPa 0,0 l/m 0 min 0 min 0 W/m 20,9 km/h (4 Bft) 93,62 %
09.02.2016 23:34 3,4 C 3,3 C 1,7 C 95 % 14 lf 989,0 hPa 0,0 l/m 0 min 0 min 0 W/m 25,1 km/h (4 Bft) 95,74 %
09.02.2016 23:36 3,4 C 2,8 C 1,7 C 95 % 15 lf 989,0 hPa 0,0 l/m 0 min 0 min 0 W/m 23,0 km/h (4 Bft) 95,65 %
09.02.2016 23:38 3,4 C 2,8 C 1,7 C 95 % 14 lf 989,1 hPa 0,0 l/m 0 min 0 min 0 W/m 20,9 km/h (4 Bft) 100,00 %
09.02.2016 23:40 3,4 C 2,8 C 1,7 C 95 % 14 lf 989,1 hPa 0,0 l/m 0 min 0 min 0 W/m 23,0 km/h (4 Bft) 97,87 %
09.02.2016 23:42 3,4 C 3,3 C 1,7 C 95 % 14 lf 989,2 hPa 0,0 l/m 0 min 0 min 0 W/m 25,1 km/h (4 Bft) 95,74 %
09.02.2016 23:44 3,4 C 3,3 C 1,7 C 95 % 14 lf 989,2 hPa 0,0 l/m 0 min 0 min 0 W/m 25,1 km/h (4 Bft) 95,74 %
09.02.2016 23:46 3,4 C 3,3 C 1,7 C 95 % 13 lf 989,3 hPa 0,0 l/m 0 min 0 min 0 W/m 29,3 km/h (5 Bft) 97,87 %
09.02.2016 23:48 3,4 C 3,3 C 1,7 C 95 % 13 lf 989,4 hPa 0,0 l/m 0 min 0 min 0 W/m 20,9 km/h (4 Bft) 95,65 %
09.02.2016 23:50 3,4 C 3,3 C 1,7 C 95 % 14 lf 989,4 hPa 0,0 l/m 0 min 0 min 0 W/m 31,4 km/h (5 Bft) 97,87 %
09.02.2016 23:52 3,4 C 3,3 C 1,7 C 95 % 13 lf 989,3 hPa 0,0 l/m 0 min 0 min 0 W/m 20,9 km/h (4 Bft) 97,87 %
09.02.2016 23:54 3,4 C 3,3 C 1,7 C 95 % 13 lf 989,4 hPa 0,0 l/m 0 min 0 min 0 W/m 29,3 km/h (5 Bft) 97,87 %
09.02.2016 23:56 3,4 C 3,3 C 1,7 C 95 % 12 lf 989,4 hPa 0,0 l/m 0 min 0 min 0 W/m 25,1 km/h (4 Bft) 95,74 %
09.02.2016 23:58 3,4 C 3,3 C 1,7 C 95 % 12 lf 989,5 hPa 0,0 l/m 0 min 0 min 0 W/m 29,3 km/h (5 Bft) 97,87 %
_ Min-Zeit 19:38 19:20 19:26 00:40 00:00 16:10 - - - - 09:50 00:02
Minimum _ 1,8 C 1,7 C 0,6 C 75 % 0 lf 974,4 hPa - - - - 6,3 km/h (2 Bft) 16,67 %
_ Max-Zeit 16:32 15:40 16:16 14:12 02:30 05:12 03:20 16:08 02:30 16:18 05:12 01:50
Maximum _ 9,4 C 8,9 C 7,2 C 97 % 15 lf 997,4 hPa 0,2 l/m 2 min 2 min 156 W/m 77,4 km/h
SW (9 Bft)
100,00 %
Durchschnitt _ 5,9 C 5,6 C 4,1 C 89 % 10 lf 988,3 hPa #13,6 l/m #20 min. #9:32 h 34 W/m 32,1 km/h (5 Bft) 95,79 %
© 2016 W. Hausmann